W4HSV Weather Reports


Display with metric or nautical units.
time (UTC)temp
F
wind
direction
speed
MPH
gust
MPH
rain 1hr
in
rain 24hr
in
rain mn
in
humidity
%
barometer
mb
20240526213431 89 175 9.0 22.0 0.00 0.00 0.00 54 1008.6
20240526213357 89 175 9.0 22.0 0.00 0.00 0.00 55 1008.6
20240526213329 88 209 10.0 22.0 0.00 0.00 0.00 54 1008.6
20240526213040 88 217 11.0 22.0 0.00 0.00 0.00 55 1008.7
20240526212930 88 182 8.0 22.0 0.00 0.00 0.00 55 1008.7
20240526212836 88 194 7.0 20.0 0.00 0.00 0.00 56 1008.7
20240526212803 88 244 8.0 20.0 0.00 0.00 0.00 55 1008.6
20240526212649 88 184 8.0 20.0 0.00 0.00 0.00 56 1008.6
20240526212536 88 200 9.0 20.0 0.00 0.00 0.00 56 1008.6
20240526212443 88 225 9.0 20.0 0.00 0.00 0.00 55 1008.7
20240526212330 88 209 10.0 20.0 0.00 0.00 0.00 55 1008.6
20240526212241 88 355 10.0 17.0 0.00 0.00 0.00 56 1008.7
20240526212129 88 213 11.0 17.0 0.00 0.00 0.00 55 1008.7
20240526212035 88 171 10.0 17.0 0.00 0.00 0.00 57 1008.7
20240526211942 87 203 9.0 16.0 0.00 0.00 0.00 59 1008.7
20240526211829 87 183 7.0 20.0 0.00 0.00 0.00 57 1008.7
20240526211803 87 183 6.0 20.0 0.00 0.00 0.00 57 1008.7
20240526211535 87 185 9.0 20.0 0.00 0.00 0.00 57 1008.7
20240526211443 87 182 10.0 20.0 0.00 0.00 0.00 57 1008.7
20240526211350 87 189 9.0 20.0 0.00 0.00 0.00 57 1008.8
20240526211235 87 156 9.0 20.0 0.00 0.00 0.00 57 1008.8
20240526211200 87 186 9.0 19.0 0.00 0.00 0.00 57 1008.7
20240526211031 87 160 11.0 19.0 0.00 0.00 0.00 56 1008.7
20240526210936 87 211 9.0 19.0 0.00 0.00 0.00 56 1008.8
20240526210843 87 167 8.0 19.0 0.00 0.00 0.00 56 1008.7
20240526210731 87 187 9.0 19.0 0.00 0.00 0.00 55 1008.7
20240526210639 87 198 10.0 23.0 0.00 0.00 0.00 56 1008.7
20240526210530 87 178 11.0 23.0 0.00 0.00 0.00 56 1008.7
20240526210436 87 202 12.0 23.0 0.00 0.00 0.00 55 1008.7
20240526210342 88 209 11.0 23.0 0.00 0.00 0.00 55 1008.8
20240526210312 88 174 10.0 23.0 0.00 0.00 0.00 55 1008.7
20240526210030 88 204 12.0 23.0 0.00 0.00 0.00 55 1008.6
20240526205936 88 190 11.0 23.0 0.00 0.00 0.00 55 1008.7
20240526205842 88 189 13.0 23.0 0.00 0.00 0.00 55 1008.6
20240526205729 88 186 14.0 22.0 0.00 0.00 0.00 54 1008.6
20240526205634 88 186 14.0 22.0 0.00 0.00 0.00 55 1008.6
20240526205542 88 168 13.0 22.0 0.00 0.00 0.00 54 1008.5
20240526205507 88 188 11.0 23.0 0.00 0.00 0.00 55 1008.6
20240526205337 88 182 9.0 21.0 0.00 0.00 0.00 55 1008.6
20240526205304 88 206 9.0 21.0 0.00 0.00 0.00 56 1008.5
20240526205130 88 192 8.0 21.0 0.00 0.00 0.00 55 1008.5
20240526205058 88 226 8.0 22.0 0.00 0.00 0.00 54 1008.5
20240526204942 88 189 10.0 22.0 0.00 0.00 0.00 54 1008.5
20240526204830 88 197 11.0 22.0 0.00 0.00 0.00 54 1008.4
20240526204805 88 221 12.0 22.0 0.00 0.00 0.00 54 1008.4
20240526204538 88 213 13.0 22.0 0.00 0.00 0.00 53 1008.5
20240526204444 88 163 15.0 22.0 0.00 0.00 0.00 54 1008.5
20240526204331 88 224 14.0 22.0 0.00 0.00 0.00 53 1008.4
20240526204237 88 178 11.0 23.0 0.00 0.00 0.00 53 1008.4
20240526204128 88 180 10.0 20.0 0.00 0.00 0.00 54 1008.3
20240526204034 88 197 9.0 22.0 0.00 0.00 0.00 54 1008.3
20240526203943 89 175 10.0 22.0 0.00 0.00 0.00 55 1008.3
20240526203829 89 161 10.0 25.0 0.00 0.00 0.00 54 1008.3
20240526203737 89 178 11.0 25.0 0.00 0.00 0.00 54 1008.3
20240526203628 89 209 11.0 25.0 0.00 0.00 0.00 54 1008.3
20240526203534 89 219 13.0 25.0 0.00 0.00 0.00 53 1008.3
20240526203441 89 202 12.0 25.0 0.00 0.00 0.00 53 1008.3
20240526203328 89 190 11.0 25.0 0.00 0.00 0.00 53 1008.2
20240526203303 89 175 12.0 25.0 0.00 0.00 0.00 53 1008.2
20240526203037 89 178 12.0 25.0 0.00 0.00 0.00 54 1008.2
20240526202944 89 181 12.0 24.0 0.00 0.00 0.00 54 1008.2
20240526202830 89 180 12.0 22.0 0.00 0.00 0.00 54 1008.2
20240526202736 88 188 12.0 22.0 0.00 0.00 0.00 55 1008.2
20240526202703 88 188 12.0 22.0 0.00 0.00 0.00 55 1008.3
20240526202548 88 173 11.0 22.0 0.00 0.00 0.00 54 1008.3
20240526202457 88 111 10.0 22.0 0.00 0.00 0.00 55 1008.3
20240526202402 88 183 13.0 22.0 0.00 0.00 0.00 54 1008.3
20240526202248 88 152 12.0 22.0 0.00 0.00 0.00 54 1008.4
20240526202155 88 180 12.0 22.0 0.00 0.00 0.00 55 1008.4
20240526202041 88 175 12.0 22.0 0.00 0.00 0.00 54 1008.4
20240526201946 88 202 9.0 24.0 0.00 0.00 0.00 56 1008.5
20240526201914 88 144 8.0 20.0 0.00 0.00 0.00 56 1008.5
20240526201825 88 163 8.0 20.0 0.00 0.00 0.00 55 1008.5
20240526201537 88 192 9.0 20.0 0.00 0.00 0.00 55 1008.6
20240526201444 88 215 12.0 24.0 0.00 0.00 0.00 54 1008.7
20240526201331 88 202 13.0 24.0 0.00 0.00 0.00 53 1008.7
20240526201238 88 194 13.0 24.0 0.00 0.00 0.00 54 1008.8
20240526201142 88 199 13.0 24.0 0.00 0.00 0.00 53 1008.8
20240526201032 88 215 12.0 24.0 0.00 0.00 0.00 54 1008.7
20240526200937 88 206 11.0 24.0 0.00 0.00 0.00 54 1008.8
20240526200844 88 190 11.0 24.0 0.00 0.00 0.00 55 1008.8
20240526200752 88 171 13.0 24.0 0.00 0.00 0.00 54 1008.8
20240526200637 88 160 14.0 24.0 0.00 0.00 0.00 54 1008.7
20240526200530 88 184 14.0 23.0 0.00 0.00 0.00 55 1008.7
20240526200436 88 129 12.0 23.0 0.00 0.00 0.00 54 1008.7
20240526200343 88 153 10.0 23.0 0.00 0.00 0.00 54 1008.8
20240526200314 88 168 10.0 21.0 0.00 0.00 0.00 56 1008.8
20240526200047 88 211 12.0 26.0 0.00 0.00 0.00 56 1008.8
20240526195938 88 172 12.0 26.0 0.00 0.00 0.00 56 1008.9
20240526195846 88 193 10.0 26.0 0.00 0.00 0.00 57 1008.8
20240526195732 88 186 8.0 26.0 0.00 0.00 0.00 57 1008.8
20240526195638 88 237 9.0 26.0 0.00 0.00 0.00 56 1008.8
20240526195544 88 161 9.0 26.0 0.00 0.00 0.00 57 1008.8
20240526195436 88 202 10.0 26.0 0.00 0.00 0.00 58 1008.8
20240526195343 88 186 12.0 26.0 0.00 0.00 0.00 56 1008.8
20240526195229 88 271 13.0 26.0 0.00 0.00 0.00 55 1009.0
20240526195137 88 190 10.0 21.0 0.00 0.00 0.00 55 1009.0
20240526195103 88 190 9.0 21.0 0.00 0.00 0.00 55 1008.9
20240526194930 88 260 11.0 21.0 0.00 0.00 0.00 55 1008.8
20240526194841 88 162 13.0 21.0 0.00 0.00 0.00 55 1008.9
20240526194811 88 192 13.0 21.0 0.00 0.00 0.00 55 1008.9
20240526194544 88 167 11.0 21.0 0.00 0.00 0.00 55 1008.7
20240526194431 88 205 10.0 19.0 0.00 0.00 0.00 56 1008.8
20240526194337 88 190 11.0 21.0 0.00 0.00 0.00 56 1008.7
20240526194306 88 206 11.0 21.0 0.00 0.00 0.00 57 1008.7
20240526194132 88 213 10.0 24.0 0.00 0.00 0.00 56 1008.7
20240526194039 88 180 9.0 24.0 0.00 0.00 0.00 56 1008.7
20240526193944 88 189 9.0 24.0 0.00 0.00 0.00 57 1008.6
20240526193832 88 200 10.0 24.0 0.00 0.00 0.00 56 1008.6
20240526193738 88 197 11.0 24.0 0.00 0.00 0.00 56 1008.6
20240526193630 88 201 12.0 24.0 0.00 0.00 0.00 56 1008.6
20240526193536 88 198 14.0 24.0 0.00 0.00 0.00 54 1008.6
20240526193444 88 139 14.0 24.0 0.00 0.00 0.00 54 1008.6
20240526193351 88 169 13.0 24.0 0.00 0.00 0.00 54 1008.5
20240526193326 88 154 10.0 24.0 0.00 0.00 0.00 56 1008.6
20240526193038 88 189 10.0 22.0 0.00 0.00 0.00 57 1008.6
20240526192944 88 242 12.0 22.0 0.00 0.00 0.00 57 1008.6
20240526192830 88 190 15.0 22.0 0.00 0.00 0.00 57 1008.7
20240526192738 88 191 14.0 22.0 0.00 0.00 0.00 57 1008.6
20240526192706 88 192 15.0 23.0 0.00 0.00 0.00 57 1008.6
20240526192537 87 180 15.0 22.0 0.00 0.00 0.00 57 1008.7
20240526192444 87 179 15.0 23.0 0.00 0.00 0.00 57 1008.7
20240526192331 87 197 14.0 23.0 0.00 0.00 0.00 57 1008.7
20240526192237 87 198 13.0 23.0 0.00 0.00 0.00 57 1008.9
20240526192205 87 207 14.0 23.0 0.00 0.00 0.00 58 1008.9
20240526192031 87 207 13.0 23.0 0.00 0.00 0.00 58 1008.9
20240526191941 87 199 13.0 23.0 0.00 0.00 0.00 58 1008.9
20240526191849 87 180 12.0 24.0 0.00 0.00 0.00 58 1008.9
20240526191819 87 162 12.0 22.0 0.00 0.00 0.00 59 1008.8
20240526191534 87 211 12.0 21.0 0.00 0.00 0.00 58 1009.0
20240526191439 87 207 12.0 21.0 0.00 0.00 0.00 58 1008.9
20240526191330 87 187 12.0 22.0 0.00 0.00 0.00 58 1008.8
20240526191238 87 178 11.0 20.0 0.00 0.00 0.00 58 1008.8
20240526191144 87 174 10.0 20.0 0.00 0.00 0.00 59 1008.8
20240526191031 87 223 11.0 20.0 0.00 0.00 0.00 59 1008.8
20240526190957 87 181 12.0 20.0 0.00 0.00 0.00 58 1008.9
20240526190842 87 184 11.0 20.0 0.00 0.00 0.00 58 1009.0
20240526190753 87 175 8.0 20.0 0.00 0.00 0.00 59 1008.9
20240526190637 87 188 9.0 20.0 0.00 0.00 0.00 58 1008.9
20240526190545 87 154 12.0 22.0 0.00 0.00 0.00 58 1008.9
20240526190453 87 179 13.0 22.0 0.00 0.00 0.00 58 1008.8
20240526190357 87 211 12.0 22.0 0.00 0.00 0.00 58 1008.9
20240526190333 87 214 9.0 22.0 0.00 0.00 0.00 59 1008.8
20240526190043 87 197 8.0 22.0 0.00 0.00 0.00 59 1008.8
20240526185931 87 168 9.0 22.0 0.00 0.00 0.00 60 1008.9
20240526185838 87 226 11.0 22.0 0.00 0.00 0.00 59 1008.9
20240526185746 87 168 11.0 22.0 0.00 0.00 0.00 60 1008.8
20240526185632 87 182 9.0 17.0 0.00 0.00 0.00 60 1009.0
20240526185544 87 173 9.0 20.0 0.00 0.00 0.00 60 1009.0
20240526185450 87 202 9.0 20.0 0.00 0.00 0.00 60 1008.9
20240526185336 87 160 9.0 20.0 0.00 0.00 0.00 59 1008.9
20240526185243 87 182 10.0 24.0 0.00 0.00 0.00 58 1009.0
20240526185130 87 168 11.0 24.0 0.00 0.00 0.00 58 1008.9
20240526185056 87 202 11.0 24.0 0.00 0.00 0.00 58 1008.9
20240526184944 87 296 12.0 24.0 0.00 0.00 0.00 59 1009.0
20240526184832 87 202 12.0 24.0 0.00 0.00 0.00 59 1008.9
20240526184802 87 190 13.0 24.0 0.00 0.00 0.00 60 1008.9
20240526184535 87 164 14.0 23.0 0.00 0.00 0.00 59 1008.9
20240526184502 87 126 14.0 23.0 0.00 0.00 0.00 58 1008.9
20240526184332 87 154 11.0 21.0 0.00 0.00 0.00 60 1008.8
20240526184240 87 209 10.0 24.0 0.00 0.00 0.00 60 1008.9
20240526184128 87 202 11.0 24.0 0.00 0.00 0.00 60 1009.0
20240526184055 87 205 14.0 24.0 0.00 0.00 0.00 59 1009.0
20240526183941 87 215 12.0 24.0 0.00 0.00 0.00 60 1009.1
20240526183827 87 199 12.0 24.0 0.00 0.00 0.00 59 1009.1
20240526183737 87 199 12.0 24.0 0.00 0.00 0.00 60 1009.1
20240526183644 87 196 12.0 24.0 0.00 0.00 0.00 59 1009.2
20240526183550 86 173 13.0 24.0 0.00 0.00 0.00 59 1009.3
20240526183436 87 213 14.0 24.0 0.00 0.00 0.00 59 1009.3
20240526183343 87 194 12.0 21.0 0.00 0.00 0.00 59 1009.2
20240526183318 87 173 12.0 20.0 0.00 0.00 0.00 60 1009.2
20240526183030 86 177 11.0 18.0 0.00 0.00 0.00 60 1009.3
20240526182938 86 201 12.0 20.0 0.00 0.00 0.00 60 1009.3
20240526182845 86 183 10.0 20.0 0.00 0.00 0.00 61 1009.5
20240526182730 86 188 9.0 20.0 0.00 0.00 0.00 61 1009.5
20240526182658 86 211 9.0 20.0 0.00 0.00 0.00 62 1009.6
20240526182527 86 191 11.0 20.0 0.00 0.00 0.00 62 1009.5
20240526182433 86 193 10.0 20.0 0.00 0.00 0.00 62 1009.5
20240526182341 86 215 11.0 20.0 0.00 0.00 0.00 62 1009.5
20240526182228 86 203 11.0 20.0 0.00 0.00 0.00 62 1009.6
20240526182135 86 158 14.0 20.0 0.00 0.00 0.00 62 1009.6
20240526182101 86 197 14.0 20.0 0.00 0.00 0.00 62 1009.6
20240526181952 86 186 12.0 20.0 0.00 0.00 0.00 61 1009.6
20240526181838 86 218 12.0 21.0 0.00 0.00 0.00 61 1009.7
20240526181810 86 179 11.0 21.0 0.00 0.00 0.00 61 1009.7
20240526181542 86 207 12.0 21.0 0.00 0.00 0.00 61 1009.8
20240526181434 86 205 13.0 21.0 0.00 0.00 0.00 61 1009.8
20240526181341 86 216 12.0 21.0 0.00 0.00 0.00 61 1009.8
20240526181228 86 176 10.0 21.0 0.00 0.00 0.00 63 1009.9
20240526181156 85 200 11.0 26.0 0.00 0.00 0.00 63 1009.9
20240526181101 85 186 13.0 26.0 0.00 0.00 0.00 62 1009.9
20240526180926 85 194 11.0 26.0 0.00 0.00 0.00 62 1009.8
20240526180854 86 205 9.0 26.0 0.00 0.00 0.00 62 1009.8
20240526180759 85 343 10.0 26.0 0.00 0.00 0.00 63 1009.8
20240526180628 85 211 11.0 26.0 0.00 0.00 0.00 62 1009.9
20240526180536 85 191 13.0 26.0 0.00 0.00 0.00 63 1009.9
20240526180442 85 216 12.0 26.0 0.00 0.00 0.00 63 1010.0
20240526180350 85 196 12.0 26.0 0.00 0.00 0.00 64 1010.0
20240526180324 85 166 11.0 21.0 0.00 0.00 0.00 65 1010.0
20240526180056 85 205 12.0 23.0 0.00 0.00 0.00 65 1010.1
20240526175941 85 213 9.0 23.0 0.00 0.00 0.00 66 1010.1
20240526175827 85 190 9.0 23.0 0.00 0.00 0.00 66 1010.1
20240526175734 85 190 10.0 23.0 0.00 0.00 0.00 66 1010.1
20240526175640 85 180 10.0 23.0 0.00 0.00 0.00 66 1010.1
20240526175531 85 236 10.0 23.0 0.00 0.00 0.00 66 1010.2
20240526175439 85 198 11.0 23.0 0.00 0.00 0.00 65 1010.1
20240526175346 85 184 13.0 23.0 0.00 0.00 0.00 65 1010.1
20240526175233 85 195 11.0 23.0 0.00 0.00 0.00 65 1010.0
20240526175140 85 184 11.0 21.0 0.00 0.00 0.00 66 1010.1
20240526175107 85 215 11.0 21.0 0.00 0.00 0.00 65 1010.1
20240526174936 85 78 12.0 23.0 0.00 0.00 0.00 65 1010.1
20240526174842 85 239 11.0 23.0 0.00 0.00 0.00 65 1010.2
20240526174813 85 204 12.0 23.0 0.00 0.00 0.00 65 1010.1
20240526174545 85 181 11.0 23.0 0.00 0.00 0.00 65 1010.1
20240526174431 85 217 11.0 23.0 0.00 0.00 0.00 65 1010.0
20240526174342 85 162 11.0 23.0 0.00 0.00 0.00 65 1010.0
20240526174307 85 192 11.0 23.0 0.00 0.00 0.00 66 1009.9
20240526174134 85 240 12.0 23.0 0.00 0.00 0.00 65 1009.8
20240526174041 85 162 11.0 23.0 0.00 0.00 0.00 66 1009.9
20240526173927 85 187 13.0 22.0 0.00 0.00 0.00 65 1009.8
20240526173835 85 197 14.0 22.0 0.00 0.00 0.00 65 1009.8
20240526173746 85 190 13.0 21.0 0.00 0.00 0.00 65 1009.9
20240526173633 85 195 10.0 19.0 0.00 0.00 0.00 66 1009.8
20240526173600 85 209 8.0 19.0 0.00 0.00 0.00 68 1009.9
20240526173427 85 182 8.0 19.0 0.00 0.00 0.00 67 1009.9
20240526173333 85 199 8.0 19.0 0.00 0.00 0.00 67 1009.9
20240526173308 85 156 10.0 19.0 0.00 0.00 0.00 67 1009.9
20240526173040 85 227 11.0 19.0 0.00 0.00 0.00 65 1009.9
20240526173007 85 271 11.0 19.0 0.00 0.00 0.00 66 1010.0
20240526172832 85 159 12.0 18.0 0.00 0.00 0.00 67 1010.1
20240526172739 85 187 13.0 18.0 0.00 0.00 0.00 67 1010.1
20240526172630 85 196 11.0 21.0 0.00 0.00 0.00 66 1010.1
20240526172536 85 213 10.0 21.0 0.00 0.00 0.00 68 1010.1
20240526172502 85 211 9.0 21.0 0.00 0.00 0.00 69 1010.2
20240526172328 85 155 10.0 21.0 0.00 0.00 0.00 68 1010.2
20240526172234 85 171 11.0 21.0 0.00 0.00 0.00 68 1010.2
20240526172142 85 188 11.0 21.0 0.00 0.00 0.00 67 1010.2
20240526172049 85 205 10.0 21.0 0.00 0.00 0.00 68 1010.1
20240526171938 85 171 11.0 21.0 0.00 0.00 0.00 67 1010.1
20240526171906 85 223 12.0 21.0 0.00 0.00 0.00 67 1010.2
20240526171837 85 198 11.0 23.0 0.00 0.00 0.00 67 1010.2
20240526171528 85 143 8.0 20.0 0.00 0.00 0.00 69 1010.1
20240526171434 85 183 10.0 20.0 0.00 0.00 0.00 68 1010.1
20240526171345 85 206 11.0 21.0 0.00 0.00 0.00 67 1010.2
20240526171231 85 182 13.0 21.0 0.00 0.00 0.00 66 1010.2
20240526171137 85 205 12.0 21.0 0.00 0.00 0.00 67 1010.3
20240526171044 85 183 12.0 21.0 0.00 0.00 0.00 68 1010.3
20240526170931 84 114 12.0 21.0 0.00 0.00 0.00 70 1010.3
20240526170843 84 146 11.0 21.0 0.00 0.00 0.00 69 1010.2
20240526170728 84 199 10.0 21.0 0.00 0.00 0.00 70 1010.3
20240526170636 84 228 9.0 21.0 0.00 0.00 0.00 70 1010.3
20240526170542 84 158 10.0 21.0 0.00 0.00 0.00 69 1010.3
20240526170430 84 179 9.0 17.0 0.00 0.00 0.00 71 1010.4
20240526170336 84 195 8.0 14.0 0.00 0.00 0.00 71 1010.4
20240526170311 84 182 8.0 14.0 0.00 0.00 0.00 71 1010.4
20240526170044 84 186 9.0 14.0 0.00 0.00 0.00 72 1010.5
20240526165931 84 219 10.0 14.0 0.00 0.00 0.00 71 1010.5
20240526165838 84 180 8.0 14.0 0.00 0.00 0.00 70 1010.6
20240526165728 84 194 9.0 15.0 0.00 0.00 0.00 70 1010.7
20240526165634 84 193 9.0 15.0 0.00 0.00 0.00 70 1010.7
20240526165540 84 223 9.0 15.0 0.00 0.00 0.00 71 1010.7
20240526165427 84 215 8.0 13.0 0.00 0.00 0.00 73 1010.8
20240526165334 84 173 7.0 18.0 0.00 0.00 0.00 72 1010.8
20240526165241 83 162 6.0 18.0 0.00 0.00 0.00 75 1010.8
20240526165131 83 213 7.0 18.0 0.00 0.00 0.00 74 1010.8
20240526165056 83 98 8.0 18.0 0.00 0.00 0.00 74 1010.8
20240526164941 83 175 8.0 18.0 0.00 0.00 0.00 73 1010.8
20240526164909 83 204 8.0 18.0 0.00 0.00 0.00 74 1010.9
20240526164817 83 184 7.0 18.0 0.00 0.00 0.00 76 1010.8
20240526164535 82 202 10.0 18.0 0.00 0.00 0.00 74 1010.8
20240526164443 82 225 10.0 18.0 0.00 0.00 0.00 74 1010.9
20240526164350 82 182 9.0 17.0 0.00 0.00 0.00 73 1010.9
20240526164235 82 178 10.0 17.0 0.00 0.00 0.00 74 1010.9
20240526164141 82 190 7.0 17.0 0.00 0.00 0.00 75 1011.0
20240526164027 82 202 6.0 17.0 0.00 0.00 0.00 75 1011.0
20240526163937 82 186 7.0 17.0 0.00 0.00 0.00 75 1011.0
20240526163905 82 185 7.0 17.0 0.00 0.00 0.00 75 1010.9
20240526163732 82 162 9.0 17.0 0.00 0.00 0.00 75 1011.1
20240526163638 82 197 9.0 17.0 0.00 0.00 0.00 75 1011.1
20240526163545 82 186 9.0 18.0 0.00 0.00 0.00 76 1011.2
20240526163432 81 242 8.0 15.0 0.00 0.00 0.00 76 1011.1
20240526163402 81 223 8.0 15.0 0.00 0.00 0.00 78 1011.2
20240526163312 81 209 9.0 15.0 0.00 0.00 0.00 78 1011.2
20240526163045 81 209 10.0 15.0 0.00 0.00 0.00 77 1011.2
20240526162932 81 185 9.0 14.0 0.00 0.00 0.00 77 1011.2
20240526162839 81 178 8.0 17.0 0.00 0.00 0.00 77 1011.2
20240526162730 81 222 8.0 17.0 0.00 0.00 0.00 77 1011.2
20240526162636 81 250 7.0 17.0 0.00 0.00 0.00 77 1011.3
20240526162545 81 239 7.0 17.0 0.00 0.00 0.00 77 1011.4
20240526162451 81 227 9.0 17.0 0.00 0.00 0.00 77 1011.3
20240526162338 81 222 10.0 17.0 0.00 0.00 0.00 76 1011.2
20240526162231 81 216 9.0 17.0 0.00 0.00 0.00 78 1011.3
20240526162136 81 189 11.0 17.0 0.00 0.00 0.00 77 1011.3
20240526162043 81 169 12.0 17.0 0.00 0.00 0.00 77 1011.3
20240526161929 81 167 7.0 18.0 0.00 0.00 0.00 79 1011.3
20240526161834 81 192 6.0 18.0 0.00 0.00 0.00 79 1011.3
20240526161809 81 196 6.0 18.0 0.00 0.00 0.00 78 1011.3
20240526161543 81 186 7.0 18.0 0.00 0.00 0.00 78 1011.3
20240526161429 81 198 10.0 18.0 0.00 0.00 0.00 80 1011.4
20240526161337 81 198 10.0 18.0 0.00 0.00 0.00 79 1011.4
20240526161244 81 188 8.0 18.0 0.00 0.00 0.00 78 1011.4
20240526161150 81 67 8.0 14.0 0.00 0.00 0.00 79 1011.6
20240526161039 81 153 9.0 14.0 0.00 0.00 0.00 78 1011.6
20240526160927 81 172 10.0 14.0 0.00 0.00 0.00 79 1011.4
20240526160834 81 180 10.0 14.0 0.00 0.00 0.00 80 1011.4
20240526160740 81 200 10.0 14.0 0.00 0.00 0.00 79 1011.4
20240526160627 81 202 9.0 14.0 0.00 0.00 0.00 79 1011.4
20240526160538 81 179 7.0 14.0 0.00 0.00 0.00 79 1011.4
20240526160445 81 184 5.0 14.0 0.00 0.00 0.00 80 1011.4
20240526160351 81 173 7.0 13.0 0.00 0.00 0.00 80 1011.4
20240526160302 81 179 8.0 13.0 0.00 0.00 0.00 79 1011.5
20240526160035 81 169 7.0 13.0 0.00 0.00 0.00 79 1011.6
20240526155946 80 211 7.0 13.0 0.00 0.00 0.00 79 1011.5
20240526155852 80 179 7.0 13.0 0.00 0.00 0.00 80 1011.6
20240526155758 80 219 7.0 13.0 0.00 0.00 0.00 80 1011.5
20240526155643 80 173 7.0 13.0 0.00 0.00 0.00 80 1011.6
20240526155530 80 186 8.0 13.0 0.00 0.00 0.00 80 1011.5
20240526155438 80 162 8.0 13.0 0.00 0.00 0.00 80 1011.6
20240526155330 80 166 7.0 14.0 0.00 0.00 0.00 80 1011.6
20240526155236 80 156 8.0 14.0 0.00 0.00 0.00 81 1011.6
20240526155144 80 215 7.0 14.0 0.00 0.00 0.00 81 1011.7
20240526155031 80 198 6.0 14.0 0.00 0.00 0.00 81 1011.8
20240526154938 80 213 6.0 14.0 0.00 0.00 0.00 81 1011.7
20240526154845 80 198 7.0 16.0 0.00 0.00 0.00 82 1011.7
20240526154819 80 214 7.0 16.0 0.00 0.00 0.00 83 1011.7
20240526154531 80 204 9.0 16.0 0.00 0.00 0.00 82 1011.8
20240526154438 80 138 10.0 16.0 0.00 0.00 0.00 82 1011.7
20240526154344 80 190 8.0 16.0 0.00 0.00 0.00 83 1011.7
20240526154234 79 217 8.0 16.0 0.00 0.00 0.00 83 1011.6
20240526154141 79 207 9.0 16.0 0.00 0.00 0.00 83 1011.6
20240526154028 79 188 9.0 16.0 0.00 0.00 0.00 83 1011.6
20240526153934 79 232 8.0 16.0 0.00 0.00 0.00 83 1011.6
20240526153842 79 200 7.0 16.0 0.00 0.00 0.00 82 1011.7
20240526153729 79 198 8.0 16.0 0.00 0.00 0.00 82 1011.5
20240526153640 79 213 9.0 16.0 0.00 0.00 0.00 82 1011.5
20240526153545 79 215 8.0 16.0 0.00 0.00 0.00 83 1011.5
20240526153433 79 195 8.0 16.0 0.00 0.00 0.00 83 1011.5
20240526153340 79 205 9.0 16.0 0.00 0.00 0.00 83 1011.5
20240526153313 79 183 9.0 16.0 0.00 0.00 0.00 83 1011.3
20240526153046 79 172 9.0 17.0 0.00 0.00 0.00 83 1011.2
20240526152934 79 190 6.0 16.0 0.00 0.00 0.00 83 1011.2
20240526152840 79 183 5.0 16.0 0.00 0.00 0.00 83 1011.2
20240526152728 79 163 8.0 16.0 0.00 0.00 0.00 83 1011.3
20240526152635 79 213 10.0 16.0 0.00 0.00 0.00 82 1011.3
20240526152606 79 159 11.0 16.0 0.00 0.00 0.00 82 1011.2
20240526152433 79 180 11.0 15.0 0.00 0.00 0.00 83 1011.1
20240526152338 79 196 10.0 15.0 0.00 0.00 0.00 83 1011.1
20240526152305 79 194 9.0 15.0 0.00 0.00 0.00 84 1011.1
20240526152131 79 165 7.0 13.0 0.00 0.00 0.00 84 1011.1
20240526152038 79 188 6.0 13.0 0.00 0.00 0.00 84 1011.0
20240526151929 79 196 5.0 13.0 0.00 0.00 0.00 84 1010.9
20240526151836 79 145 5.0 13.0 0.00 0.00 0.00 85 1010.9
20240526151807 79 236 4.0 13.0 0.00 0.00 0.00 85 1010.9
20240526151539 79 178 5.0 13.0 0.00 0.00 0.00 84 1011.1
20240526151446 79 241 6.0 13.0 0.00 0.00 0.00 84 1011.1
20240526151335 79 186 9.0 13.0 0.00 0.00 0.00 84 1011.1
20240526151242 79 184 9.0 17.0 0.00 0.00 0.00 84 1011.1
20240526151129 79 162 8.0 17.0 0.00 0.00 0.00 85 1011.0
20240526151036 79 196 6.0 17.0 0.00 0.00 0.00 85 1011.0
20240526151002 79 181 6.0 17.0 0.00 0.00 0.00 85 1010.9
20240526150827 79 264 8.0 17.0 0.00 0.00 0.00 85 1010.9
20240526150737 79 207 9.0 17.0 0.00 0.00 0.00 85 1010.9
20240526150644 79 193 9.0 17.0 0.00 0.00 0.00 84 1010.9
20240526150530 79 183 10.0 17.0 0.00 0.00 0.00 84 1010.8
20240526150436 79 198 9.0 17.0 0.00 0.00 0.00 84 1010.8
20240526150344 79 185 9.0 16.0 0.00 0.00 0.00 84 1010.7
20240526150317 79 202 9.0 16.0 0.00 0.00 0.00 84 1010.6
20240526150030 79 181 8.0 16.0 0.00 0.00 0.00 84 1010.6
20240526145937 79 180 6.0 16.0 0.00 0.00 0.00 85 1010.5
20240526145843 79 176 5.0 16.0 0.00 0.00 0.00 85 1010.6
20240526145731 79 163 7.0 16.0 0.00 0.00 0.00 85 1010.5
20240526145641 79 202 8.0 16.0 0.00 0.00 0.00 84 1010.5
20240526145527 79 193 10.0 16.0 0.00 0.00 0.00 85 1010.6
20240526145435 79 180 10.0 16.0 0.00 0.00 0.00 85 1010.6
20240526145343 79 174 9.0 16.0 0.00 0.00 0.00 84 1010.6
20240526145249 79 169 7.0 16.0 0.00 0.00 0.00 85 1010.7
20240526145136 79 196 7.0 16.0 0.00 0.00 0.00 85 1010.7
20240526145027 79 204 8.0 16.0 0.00 0.00 0.00 85 1010.5
20240526144933 79 162 8.0 16.0 0.00 0.00 0.00 84 1010.5
20240526144839 79 171 7.0 16.0 0.00 0.00 0.00 85 1010.5
20240526144810 79 178 8.0 16.0 0.00 0.00 0.00 85 1010.5
20240526144547 79 184 7.0 16.0 0.00 0.00 0.00 85 1010.6
20240526144432 79 184 7.0 13.0 0.00 0.00 0.00 85 1010.5
20240526144340 79 202 7.0 13.0 0.00 0.00 0.00 85 1010.6
20240526144246 78 177 7.0 13.0 0.00 0.00 0.00 85 1010.5
20240526144152 78 169 7.0 17.0 0.00 0.00 0.00 85 1010.5
20240526144037 78 169 7.0 17.0 0.00 0.00 0.00 85 1010.4
20240526143927 78 175 8.0 17.0 0.00 0.00 0.00 85 1010.4
20240526143834 78 186 8.0 17.0 0.00 0.00 0.00 85 1010.4
20240526143740 78 188 9.0 17.0 0.00 0.00 0.00 85 1010.3
20240526143706 78 179 8.0 17.0 0.00 0.00 0.00 85 1010.2
20240526143553 78 196 8.0 18.0 0.00 0.00 0.00 85 1010.2
20240526143438 78 186 9.0 18.0 0.00 0.00 0.00 85 1010.2
20240526143345 78 169 11.0 18.0 0.00 0.00 0.00 84 1010.2
20240526143320 78 208 11.0 18.0 0.00 0.00 0.00 84 1010.2
20240526143032 78 188 9.0 18.0 0.00 0.00 0.00 84 1010.4
20240526142940 79 195 9.0 18.0 0.00 0.00 0.00 84 1010.4
20240526142905 79 186 10.0 18.0 0.00 0.00 0.00 84 1010.3
20240526142751 79 287 11.0 18.0 0.00 0.00 0.00 84 1010.3
20240526142641 79 185 9.0 16.0 0.00 0.00 0.00 84 1010.3
20240526142547 79 179 7.0 15.0 0.00 0.00 0.00 84 1010.3
20240526142433 79 212 6.0 15.0 0.00 0.00 0.00 85 1010.3
20240526142340 79 190 5.0 19.0 0.00 0.00 0.00 85 1010.3
20240526142227 79 166 6.0 19.0 0.00 0.00 0.00 85 1010.3
20240526142138 79 153 7.0 19.0 0.00 0.00 0.00 84 1010.3
20240526142045 78 175 6.0 19.0 0.00 0.00 0.00 84 1010.3
20240526141931 78 190 8.0 19.0 0.00 0.00 0.00 84 1010.2
20240526141858 78 178 9.0 19.0 0.00 0.00 0.00 84 1010.1
20240526141829 78 185 10.0 19.0 0.00 0.00 0.00 84 1010.1
20240526141545 78 190 8.0 19.0 0.00 0.00 0.00 84 1010.1
20240526141431 78 208 6.0 18.0 0.00 0.00 0.00 84 1010.1
20240526141356 78 185 8.0 18.0 0.00 0.00 0.00 84 1010.2
20240526141242 78 194 10.0 18.0 0.00 0.00 0.00 84 1010.2
20240526141129 79 175 10.0 18.0 0.00 0.00 0.00 84 1010.3
20240526141034 79 212 9.0 18.0 0.00 0.00 0.00 84 1010.3
20240526140945 78 222 8.0 18.0 0.00 0.00 0.00 84 1010.3
20240526140831 78 198 7.0 18.0 0.00 0.00 0.00 84 1010.3
20240526140738 78 201 9.0 18.0 0.00 0.00 0.00 84 1010.4
20240526140644 79 215 9.0 18.0 0.00 0.00 0.00 84 1010.4
20240526140531 78 175 9.0 18.0 0.00 0.00 0.00 84 1010.4
20240526140438 78 138 10.0 17.0 0.00 0.00 0.00 85 1010.4
20240526140410 78 175 10.0 17.0 0.00 0.00 0.00 84 1010.4
20240526140341 78 200 10.0 17.0 0.00 0.00 0.00 84 1010.4
20240526140053 78 191 9.0 17.0 0.00 0.00 0.00 85 1010.4
20240526135939 78 259 8.0 14.0 0.00 0.00 0.00 84 1010.4
20240526135845 78 201 8.0 14.0 0.00 0.00 0.00 84 1010.3
20240526135735 78 169 8.0 13.0 0.00 0.00 0.00 85 1010.3
20240526135642 78 169 9.0 13.0 0.00 0.00 0.00 84 1010.3
20240526135549 78 171 9.0 13.0 0.00 0.00 0.00 85 1010.4
20240526135436 78 194 7.0 13.0 0.00 0.00 0.00 85 1010.4
20240526135403 78 195 6.0 12.0 0.00 0.00 0.00 85 1010.5
20240526135230 78 198 6.0 12.0 0.00 0.00 0.00 85 1010.4
20240526135141 78 161 7.0 12.0 0.00 0.00 0.00 85 1010.6
20240526135027 78 158 8.0 12.0 0.00 0.00 0.00 85 1010.5
20240526134954 78 171 8.0 12.0 0.00 0.00 0.00 85 1010.5
20240526134840 78 136 7.0 12.0 0.00 0.00 0.00 86 1010.6
20240526134812 78 183 7.0 12.0 0.00 0.00 0.00 86 1010.6
20240526134527 78 171 7.0 17.0 0.00 0.00 0.00 85 1010.7
20240526134434 78 176 7.0 17.0 0.00 0.00 0.00 86 1010.7
20240526134341 78 221 7.0 17.0 0.00 0.00 0.00 85 1010.7
20240526134227 78 171 7.0 17.0 0.00 0.00 0.00 86 1010.7
20240526134134 78 180 7.0 17.0 0.00 0.00 0.00 86 1010.7
20240526134040 78 169 6.0 17.0 0.00 0.00 0.00 86 1010.7
20240526133932 77 188 8.0 17.0 0.00 0.00 0.00 86 1010.7
20240526133859 77 196 8.0 17.0 0.00 0.00 0.00 86 1010.7
20240526133744 77 171 7.0 17.0 0.00 0.00 0.00 86 1010.8
20240526133630 77 160 6.0 10.0 0.00 0.00 0.00 86 1010.8
20240526133558 77 183 7.0 10.0 0.00 0.00 0.00 86 1010.7
20240526133504 77 157 6.0 10.0 0.00 0.00 0.00 86 1010.8
20240526133332 77 178 6.0 11.0 0.00 0.00 0.00 86 1010.8
20240526133304 77 161 7.0 11.0 0.00 0.00 0.00 86 1010.7
20240526133036 77 164 8.0 11.0 0.00 0.00 0.00 86 1010.7
20240526132942 77 157 8.0 13.0 0.00 0.00 0.00 87 1010.6
20240526132830 77 180 7.0 13.0 0.00 0.00 0.00 87 1010.5
20240526132741 77 153 7.0 13.0 0.00 0.00 0.00 86 1010.6
20240526132708 77 111 8.0 13.0 0.00 0.00 0.00 87 1010.6
20240526132534 77 165 7.0 13.0 0.00 0.00 0.00 87 1010.7
20240526132440 77 101 6.0 13.0 0.00 0.00 0.00 87 1010.8
20240526132328 77 175 6.0 13.0 0.00 0.00 0.00 86 1010.6
20240526132255 77 196 7.0 13.0 0.00 0.00 0.00 87 1010.6
20240526132139 77 201 8.0 13.0 0.00 0.00 0.00 87 1010.6
20240526132031 77 192 8.0 11.0 0.00 0.00 0.00 87 1010.5
20240526131939 77 119 7.0 11.0 0.00 0.00 0.00 87 1010.5
20240526131905 76 181 7.0 11.0 0.00 0.00 0.00 87 1010.5
20240526131815 76 190 7.0 13.0 0.00 0.00 0.00 87 1010.5
20240526131548 76 180 8.0 13.0 0.00 0.00 0.00 87 1010.7
20240526131437 76 215 7.0 13.0 0.00 0.00 0.00 87 1010.7
20240526131345 76 191 6.0 13.0 0.00 0.00 0.00 87 1010.6
20240526131232 76 169 6.0 13.0 0.00 0.00 0.00 87 1010.5
20240526131139 76 173 6.0 13.0 0.00 0.00 0.00 87 1010.4
20240526131045 76 180 6.0 13.0 0.00 0.00 0.00 88 1010.4
20240526130952 76 145 6.0 14.0 0.00 0.00 0.00 88 1010.3
20240526130841 76 172 5.0 12.0 0.00 0.00 0.00 88 1010.3
20240526130730 76 139 7.0 12.0 0.00 0.00 0.00 88 1010.2
20240526130636 76 148 6.0 12.0 0.00 0.00 0.00 88 1010.2
20240526130543 76 142 6.0 12.0 0.00 0.00 0.00 88 1010.1
20240526130429 76 123 6.0 12.0 0.00 0.00 0.00 88 1010.1
20240526130340 76 128 7.0 12.0 0.00 0.00 0.00 88 1010.2
20240526130311 76 156 7.0 12.0 0.00 0.00 0.00 88 1010.2
20240526130043 76 151 6.0 11.0 0.00 0.00 0.00 88 1010.2
20240526125930 76 184 7.0 11.0 0.00 0.00 0.00 88 1010.2
20240526125836 76 146 8.0 11.0 0.00 0.00 0.00 88 1010.2
20240526125727 76 115 8.0 11.0 0.00 0.00 0.00 88 1010.1
20240526125655 76 114 9.0 11.0 0.00 0.00 0.00 88 1010.1
20240526125541 76 126 9.0 11.0 0.00 0.00 0.00 88 1010.1
20240526125428 76 125 8.0 11.0 0.00 0.00 0.00 88 1010.1
20240526125334 75 137 6.0 11.0 0.00 0.00 0.00 88 1010.1
20240526125240 75 149 5.0 11.0 0.00 0.00 0.00 88 1010.1
20240526125131 75 153 5.0 11.0 0.00 0.00 0.00 88 1010.1
20240526125037 75 142 6.0 11.0 0.00 0.00 0.00 88 1010.2
20240526124945 75 123 6.0 11.0 0.00 0.00 0.00 88 1010.2
20240526124852 75 146 5.0 11.0 0.00 0.00 0.00 88 1010.3
20240526124805 75 142 4.0 11.0 0.00 0.00 0.00 88 1010.2
20240526124558 75 186 4.0 11.0 0.00 0.00 0.00 89 1010.2
20240526124444 75 162 3.0 11.0 0.00 0.00 0.00 89 1010.1
20240526124351 75 153 4.0 11.0 0.00 0.00 0.00 89 1010.2
20240526124236 75 140 6.0 11.0 0.00 0.00 0.00 89 1010.1
20240526124143 75 191 7.0 11.0 0.00 0.00 0.00 89 1010.2
20240526124030 75 178 6.0 10.0 0.00 0.03 0.00 89 1010.3
20240526124001 75 126 5.0 10.0 0.00 0.03 0.00 89 1010.1
20240526123827 75 173 7.0 12.0 0.00 0.03 0.00 89 1010.0
20240526123735 75 171 7.0 12.0 0.00 0.03 0.00 89 1010.0
20240526123641 75 136 6.0 12.0 0.00 0.03 0.00 89 1010.0
20240526123527 75 140 5.0 11.0 0.00 0.03 0.00 89 1010.0
20240526123433 75 150 7.0 11.0 0.00 0.03 0.00 89 1010.0
20240526123343 75 207 6.0 11.0 0.00 0.03 0.00 89 1010.0
20240526123314 75 142 6.0 11.0 0.00 0.03 0.00 89 1009.9
20240526123027 75 105 6.0 11.0 0.00 0.03 0.00 89 1009.9
20240526122934 75 153 5.0 11.0 0.00 0.03 0.00 89 1009.9
20240526122846 75 137 5.0 11.0 0.00 0.03 0.00 89 1009.9
20240526122734 75 136 6.0 11.0 0.00 0.03 0.00 89 1009.9
20240526122639 75 146 7.0 11.0 0.00 0.03 0.00 89 1009.9
20240526122527 75 194 6.0 11.0 0.00 0.03 0.00 89 1009.9
20240526122434 75 147 6.0 11.0 0.00 0.03 0.00 89 1009.9
20240526122341 75 138 5.0 11.0 0.00 0.03 0.00 89 1009.8
20240526122235 75 136 4.0 11.0 0.00 0.03 0.00 89 1009.8
20240526122200 75 155 5.0 11.0 0.00 0.03 0.00 89 1009.9
20240526122106 75 150 6.0 11.0 0.00 0.03 0.00 89 1009.8
20240526121931 75 146 4.0 10.0 0.00 0.03 0.00 89 1009.8
20240526121837 75 138 3.0 10.0 0.00 0.03 0.00 90 1009.8
20240526121811 75 117 3.0 10.0 0.00 0.03 0.00 90 1009.8
20240526121543 74 161 6.0 10.0 0.00 0.03 0.00 90 1009.9
20240526121430 74 138 7.0 10.0 0.00 0.03 0.00 90 1009.8
20240526121337 74 144 6.0 10.0 0.00 0.03 0.00 90 1009.8
20240526121243 74 152 5.0 10.0 0.00 0.03 0.00 90 1009.8
20240526121134 74 139 5.0 12.0 0.00 0.03 0.00 90 1009.9
20240526121102 74 136 5.0 12.0 0.00 0.03 0.00 90 1009.9
20240526120946 74 145 5.0 12.0 0.00 0.03 0.00 90 1009.8
20240526120833 74 128 6.0 12.0 0.00 0.03 0.00 90 1009.9
20240526120739 74 123 5.0 12.0 0.00 0.03 0.00 90 1009.9
20240526120646 74 144 5.0 12.0 0.00 0.03 0.00 90 1009.9
20240526120553 74 153 6.0 12.0 0.00 0.03 0.00 90 1009.9
20240526120443 74 131 7.0 12.0 0.00 0.03 0.00 90 1009.9
20240526120350 74 131 8.0 12.0 0.00 0.03 0.00 90 1010.0
20240526120320 74 144 8.0 12.0 0.00 0.03 0.00 90 1010.0
20240526120033 74 142 6.0 12.0 0.00 0.03 0.00 90 1010.0
20240526115945 74 140 5.0 12.0 0.00 0.03 0.00 90 1010.1
20240526115830 74 130 7.0 12.0 0.00 0.03 0.00 90 1010.0
20240526115737 74 134 7.0 13.0 0.00 0.03 0.00 90 1010.1
20240526115643 74 115 6.0 13.0 0.00 0.03 0.00 90 1010.0
20240526115530 74 110 5.0 13.0 0.00 0.03 0.00 90 1010.0
20240526115436 74 120 6.0 13.0 0.00 0.03 0.00 90 1010.0
20240526115327 74 128 6.0 13.0 0.00 0.03 0.00 90 1009.9
20240526115234 74 127 7.0 13.0 0.00 0.03 0.00 90 1009.9
20240526115141 74 149 7.0 13.0 0.00 0.03 0.00 90 1010.0
20240526115049 74 121 7.0 13.0 0.00 0.03 0.00 90 1010.1
20240526114933 74 154 8.0 13.0 0.00 0.03 0.00 90 1010.1
20240526114901 74 141 7.0 13.0 0.00 0.03 0.00 90 1010.2
20240526114817 74 115 8.0 11.0 0.00 0.03 0.00 90 1010.1
20240526114530 74 126 7.0 11.0 0.00 0.03 0.00 90 1010.2
20240526114437 74 113 6.0 11.0 0.00 0.03 0.00 90 1010.3
20240526114343 74 132 7.0 11.0 0.00 0.03 0.00 90 1010.3
20240526114234 74 126 8.0 11.0 0.00 0.03 0.00 90 1010.3
20240526114142 74 128 8.0 11.0 0.00 0.03 0.00 90 1010.3
20240526114028 74 142 7.0 11.0 0.00 0.86 0.00 90 1010.3
20240526113934 74 120 7.0 10.0 0.00 0.86 0.00 90 1010.3
20240526113841 74 110 7.0 10.0 0.00 0.86 0.00 90 1010.3
20240526113729 74 116 6.0 10.0 0.00 0.86 0.00 90 1010.4
20240526113639 74 133 6.0 10.0 0.00 0.86 0.00 90 1010.4
20240526113545 74 138 6.0 10.0 0.00 0.86 0.00 90 1010.4
20240526113431 74 123 6.0 9.0 0.00 0.86 0.00 90 1010.3
20240526113337 74 138 6.0 9.0 0.00 0.86 0.00 90 1010.4
20240526113312 74 129 6.0 9.0 0.00 0.86 0.00 90 1010.4
20240526113045 74 133 6.0 9.0 0.00 0.86 0.00 89 1010.4
20240526112953 74 133 5.0 9.0 0.00 0.86 0.00 90 1010.4
20240526112839 74 112 4.0 9.0 0.00 0.86 0.00 90 1010.6
20240526112747 74 121 4.0 9.0 0.00 0.86 0.00 89 1010.5
20240526112632 74 151 5.0 9.0 0.00 0.86 0.00 89 1010.5
20240526112542 75 115 5.0 9.0 0.00 0.86 0.00 89 1010.5
20240526112428 74 124 5.0 9.0 0.00 0.86 0.00 90 1010.5
20240526112335 75 113 5.0 9.0 0.00 0.86 0.00 90 1010.5
20240526112243 75 118 5.0 9.0 0.00 0.86 0.00 89 1010.6
20240526112129 75 161 6.0 9.0 0.00 0.86 0.00 89 1010.5
20240526112056 75 126 6.0 10.0 0.00 0.86 0.00 89 1010.5
20240526111946 75 150 6.0 10.0 0.00 0.86 0.00 89 1010.5
20240526111852 75 157 6.0 10.0 0.00 0.86 0.00 90 1010.5
20240526111822 75 149 6.0 10.0 0.00 0.86 0.00 89 1010.4
20240526111555 75 130 5.0 10.0 0.00 0.86 0.00 90 1010.5
20240526111440 75 154 5.0 10.0 0.00 0.86 0.00 90 1010.5
20240526111407 75 129 5.0 10.0 0.00 0.86 0.00 90 1010.5
20240526111236 75 144 6.0 9.0 0.00 0.86 0.00 90 1010.5
20240526111143 74 143 5.0 9.0 0.00 0.86 0.00 90 1010.5
20240526111029 74 105 4.0 8.0 0.00 0.86 0.00 90 1010.5
20240526110934 75 154 5.0 8.0 0.00 0.86 0.00 90 1010.5
20240526110841 74 141 4.0 8.0 0.00 0.86 0.00 90 1010.6
20240526110731 74 123 4.0 8.0 0.00 0.86 0.00 90 1010.6
20240526110638 74 134 4.0 8.0 0.00 0.86 0.00 90 1010.6
20240526110545 74 134 4.0 8.0 0.00 0.86 0.00 90 1010.6
20240526110431 74 123 4.0 8.0 0.00 0.86 0.00 90 1010.5
20240526110339 74 145 4.0 8.0 0.00 0.86 0.00 90 1010.6
20240526110312 74 117 4.0 8.0 0.00 0.86 0.00 90 1010.6
20240526110104 74 154 4.0 9.0 0.00 0.86 0.00 90 1010.6
20240526105931 74 130 4.0 9.0 0.00 0.86 0.00 90 1010.6
20240526105834 74 150 4.0 9.0 0.00 0.86 0.00 90 1010.6
20240526105802 74 134 4.0 9.0 0.00 0.86 0.00 90 1010.6
20240526105628 74 151 3.0 9.0 0.00 0.86 0.00 90 1010.7
20240526105539 74 139 3.0 9.0 0.00 0.86 0.00 90 1010.7
20240526105446 74 159 3.0 9.0 0.00 0.86 0.00 90 1010.5
20240526105333 74 128 5.0 9.0 0.00 0.86 0.00 90 1010.6
20240526105301 74 155 6.0 9.0 0.00 0.86 0.00 90 1010.4
20240526105146 74 161 5.0 8.0 0.00 0.86 0.00 90 1010.4
20240526105033 74 150 4.0 8.0 0.00 0.86 0.00 90 1010.4
20240526104943 74 136 5.0 8.0 0.00 0.86 0.00 90 1010.4
20240526104911 74 137 5.0 8.0 0.00 0.86 0.00 90 1010.4
20240526104822 74 116 5.0 8.0 0.00 0.86 0.00 90 1010.4
20240526104554 74 158 4.0 8.0 0.00 0.86 0.00 90 1010.3
20240526104439 74 153 4.0 7.0 0.00 0.86 0.00 90 1010.2
20240526104346 74 159 4.0 8.0 0.00 0.86 0.00 90 1010.3
20240526104237 74 142 4.0 9.0 0.00 0.86 0.00 90 1010.2
20240526104143 74 146 4.0 9.0 0.00 0.86 0.00 90 1010.2
20240526104029 74 132 4.0 9.0 0.00 0.86 0.00 90 1010.4
20240526103956 74 148 4.0 9.0 0.00 0.86 0.00 90 1010.3
20240526103841 74 128 4.0 9.0 0.00 0.86 0.00 90 1010.3
20240526103728 74 148 4.0 9.0 0.00 0.86 0.00 90 1010.4
20240526103637 74 146 4.0 9.0 0.00 0.86 0.00 90 1010.4
20240526103544 74 148 5.0 9.0 0.00 0.86 0.00 91 1010.4
20240526103431 74 157 4.0 9.0 0.00 0.86 0.00 91 1010.4
20240526103337 74 157 3.0 8.0 0.00 0.86 0.00 91 1010.4
20240526103313 74 144 3.0 8.0 0.00 0.86 0.00 91 1010.4
20240526103046 74 165 4.0 8.0 0.00 0.86 0.00 91 1010.5
20240526102932 74 159 4.0 7.0 0.00 0.86 0.00 91 1010.4
20240526102838 74 144 4.0 7.0 0.00 0.86 0.00 91 1010.4
20240526102746 74 148 3.0 7.0 0.00 0.86 0.00 91 1010.3
20240526102652 74 163 4.0 7.0 0.00 0.86 0.00 91 1010.3
20240526102541 74 146 4.0 7.0 0.00 0.86 0.00 91 1010.3
20240526102428 74 138 2.0 7.0 0.00 0.86 0.00 91 1010.3
20240526102335 74 180 3.0 7.0 0.00 0.86 0.00 91 1010.3
20240526102242 74 154 3.0 7.0 0.00 0.86 0.00 91 1010.3
20240526102129 74 149 3.0 7.0 0.00 0.86 0.00 91 1010.3
20240526102035 74 138 3.0 7.0 0.00 0.86 0.00 91 1010.3
20240526101946 74 135 3.0 7.0 0.00 0.86 0.00 91 1010.3
20240526101833 74 132 3.0 7.0 0.00 0.86 0.00 92 1010.2
20240526101804 73 128 3.0 7.0 0.00 0.86 0.00 92 1010.2
20240526101537 74 131 3.0 5.0 0.00 0.86 0.00 92 1010.1
20240526101428 73 155 3.0 5.0 0.00 0.86 0.00 92 1010.2
20240526101334 73 135 3.0 4.0 0.00 0.86 0.00 92 1010.2
20240526101242 73 132 3.0 4.0 0.00 0.86 0.00 92 1010.2
20240526101149 73 132 3.0 5.0 0.00 0.86 0.00 92 1010.2
20240526101035 73 144 3.0 4.0 0.00 0.86 0.00 91 1010.2
20240526100943 73 139 3.0 4.0 0.00 0.86 0.00 92 1010.2
20240526100833 73 133 3.0 4.0 0.00 0.86 0.00 92 1010.2
20240526100740 73 132 3.0 4.0 0.00 0.86 0.00 92 1010.2
20240526100647 73 135 3.0 5.0 0.00 0.86 0.00 92 1010.4
20240526100533 73 132 3.0 5.0 0.00 0.86 0.00 92 1010.3
20240526100440 73 118 3.0 5.0 0.00 0.86 0.00 92 1010.3
20240526100330 73 151 2.0 5.0 0.00 0.86 0.00 91 1010.4
20240526100302 73 138 2.0 5.0 0.00 0.86 0.00 91 1010.3
20240526100034 73 126 2.0 6.0 0.00 0.86 0.00 91 1010.2
20240526100001 73 133 2.0 6.0 0.00 0.86 0.00 91 1010.2
20240526095906 73 130 2.0 6.0 0.00 0.86 0.00 91 1010.2
20240526095731 73 123 2.0 6.0 0.00 0.86 0.00 91 1010.1
20240526095641 73 148 2.0 6.0 0.00 0.86 0.00 91 1010.1
20240526095529 73 138 2.0 6.0 0.00 0.86 0.00 91 1010.0
20240526095455 73 120 2.0 6.0 0.00 0.86 0.00 91 1010.1
20240526095341 73 152 2.0 6.0 0.00 0.86 0.00 91 1010.1
20240526095227 73 154 3.0 6.0 0.00 0.86 0.00 91 1010.1
20240526095134 73 135 4.0 6.0 0.00 0.86 0.00 91 1010.1
20240526095101 73 151 4.0 5.0 0.00 0.86 0.00 91 1010.1
20240526094930 73 128 3.0 5.0 0.00 0.86 0.00 91 1010.0
20240526094836 73 110 3.0 5.0 0.00 0.86 0.00 91 1010.0
20240526094807 73 125 3.0 5.0 0.00 0.86 0.00 91 1010.0
20240526094600 73 129 3.0 7.0 0.00 0.86 0.00 91 1009.9
20240526094429 73 141 3.0 7.0 0.00 0.86 0.00 91 1010.0
20240526094336 73 132 3.0 8.0 0.00 0.86 0.00 91 1010.0
20240526094243 73 115 3.0 8.0 0.00 0.86 0.00 91 1010.0
20240526094128 73 121 3.0 8.0 0.00 0.86 0.00 91 1010.1
20240526094033 73 129 3.0 8.0 0.00 0.86 0.00 91 1010.1
20240526093940 74 123 3.0 8.0 0.00 0.86 0.00 91 1010.1
20240526093906 73 119 4.0 8.0 0.00 0.86 0.00 91 1010.0
20240526093735 73 146 4.0 8.0 0.00 0.86 0.00 91 1010.0
20240526093641 73 139 5.0 8.0 0.00 0.86 0.00 91 1010.0
20240526093548 74 123 5.0 8.0 0.00 0.86 0.00 91 1009.9
20240526093433 73 111 5.0 8.0 0.00 0.86 0.00 91 1009.9
20240526093339 73 128 5.0 8.0 0.00 0.86 0.00 91 1009.9
20240526093315 74 121 5.0 8.0 0.00 0.86 0.00 91 1009.8
20240526093107 74 124 5.0 8.0 0.00 0.86 0.00 91 1009.9
20240526092932 74 127 5.0 8.0 0.00 0.86 0.00 91 1010.0
20240526092840 74 125 4.0 8.0 0.00 0.86 0.00 91 1010.0
20240526092727 74 128 5.0 8.0 0.00 0.86 0.00 91 1010.0
20240526092635 74 119 5.0 8.0 0.00 0.86 0.00 91 1010.0
20240526092545 74 134 4.0 7.0 0.00 0.86 0.00 91 1010.0
20240526092453 74 121 4.0 7.0 0.00 0.86 0.00 91 1010.1
20240526092359 74 119 3.0 7.0 0.00 0.86 0.00 91 1010.1
20240526092244 74 157 4.0 8.0 0.00 0.86 0.00 91 1010.1
20240526092129 74 123 4.0 8.0 0.00 0.86 0.00 91 1010.1
20240526092056 74 121 4.0 8.0 0.00 0.86 0.00 90 1010.1
20240526091942 74 136 4.0 8.0 0.00 0.86 0.00 90 1010.1
20240526091854 74 129 4.0 8.0 0.00 0.86 0.00 90 1010.1
20240526091804 74 134 4.0 8.0 0.00 0.86 0.00 90 1010.1
20240526091538 74 123 5.0 8.0 0.00 0.86 0.00 90 1010.1
20240526091443 74 108 6.0 8.0 0.00 0.86 0.00 90 1010.1
20240526091350 74 121 5.0 8.0 0.00 0.86 0.00 90 1010.1
20240526091259 74 125 5.0 8.0 0.00 0.86 0.00 90 1010.1
20240526091205 74 138 6.0 8.0 0.00 0.86 0.00 90 1010.1
20240526091032 74 128 6.0 8.0 0.00 0.86 0.00 90 1010.1
20240526090938 74 127 6.0 8.0 0.00 0.86 0.00 90 1010.1
20240526090843 74 128 6.0 8.0 0.00 0.86 0.00 90 1010.1
20240526090729 74 123 5.0 8.0 0.00 0.86 0.00 90 1010.0
20240526090640 74 136 5.0 7.0 0.00 0.86 0.00 90 1009.9
20240526090527 74 172 5.0 7.0 0.00 0.86 0.00 90 1010.0
20240526090435 74 113 4.0 7.0 0.00 0.86 0.00 90 1010.0
20240526090341 74 117 4.0 7.0 0.00 0.86 0.00 90 1009.9
20240526090310 74 117 3.0 7.0 0.00 0.86 0.00 90 1009.9
20240526090027 74 122 4.0 6.0 0.00 0.86 0.00 90 1010.1
20240526085934 74 136 4.0 6.0 0.00 0.86 0.00 90 1010.1
20240526085841 74 122 4.0 6.0 0.00 0.86 0.00 89 1010.1
20240526085728 74 119 3.0 6.0 0.00 0.86 0.00 89 1010.1
20240526085635 74 131 3.0 4.0 0.00 0.86 0.00 89 1010.1
20240526085527 74 120 3.0 4.0 0.00 0.86 0.00 89 1010.1
20240526085433 74 128 3.0 4.0 0.00 0.86 0.00 89 1010.1
20240526085400 74 138 3.0 4.0 0.00 0.86 0.00 89 1010.1
20240526085306 74 127 3.0 4.0 0.00 0.86 0.00 89 1010.1
20240526085132 74 143 3.0 4.0 0.00 0.86 0.00 89 1010.2
20240526085059 74 130 2.0 4.0 0.00 0.86 0.00 89 1010.3
20240526084944 74 134 2.0 4.0 0.00 0.86 0.00 89 1010.2
20240526084835 74 126 3.0 4.0 0.00 0.86 0.00 89 1010.3
20240526084807 74 134 3.0 4.0 0.00 0.86 0.00 89 1010.2
20240526084541 74 121 2.0 4.0 0.00 0.86 0.00 89 1010.2
20240526084427 74 135 1.0 4.0 0.00 0.86 0.00 89 1010.2
20240526084337 74 135 2.0 4.0 0.00 0.86 0.00 89 1010.2
20240526084245 74 135 2.0 4.0 0.00 0.86 0.00 89 1010.2
20240526084131 74 128 2.0 4.0 0.00 0.86 0.00 89 1010.1
20240526084040 74 123 2.0 4.0 0.00 0.86 0.00 89 1010.1
20240526083945 74 126 3.0 4.0 0.00 0.86 0.00 89 1010.1
20240526083832 74 107 3.0 4.0 0.00 0.86 0.00 89 1010.1
20240526083802 74 109 2.0 4.0 0.00 0.86 0.00 89 1010.1
20240526083628 74 112 2.0 4.0 0.00 0.86 0.00 89 1010.1
20240526083556 74 115 2.0 4.0 0.00 0.86 0.00 89 1010.1
20240526083443 74 115 2.0 4.0 0.00 0.86 0.00 89 1010.1
20240526083328 74 126 3.0 4.0 0.00 0.86 0.00 89 1010.1
20240526083303 74 127 3.0 4.0 0.00 0.86 0.00 89 1010.1
20240526083034 74 123 2.0 4.0 0.00 0.86 0.00 89 1010.2
20240526082941 74 121 2.0 4.0 0.00 0.86 0.00 89 1010.2
20240526082828 74 128 2.0 4.0 0.00 0.86 0.00 89 1010.1
20240526082736 74 138 2.0 4.0 0.00 0.86 0.00 89 1010.1
20240526082643 74 152 2.0 4.0 0.00 0.86 0.00 89 1010.2
20240526082534 74 144 2.0 4.0 0.00 0.86 0.00 89 1010.2
20240526082440 74 161 2.0 4.0 0.00 0.86 0.00 89 1010.3
20240526082327 74 169 2.0 4.0 0.00 0.86 0.00 89 1010.3
20240526082232 74 178 2.0 3.0 0.00 0.86 0.00 89 1010.3
20240526082140 74 147 2.0 3.0 0.00 0.86 0.00 89 1010.3
20240526082030 74 145 1.0 4.0 0.00 0.86 0.00 89 1010.2
20240526081938 74 145 2.0 4.0 0.00 0.86 0.00 89 1010.2
20240526081842 74 138 2.0 4.0 0.00 0.86 0.00 89 1010.2
20240526081812 74 154 2.0 4.0 0.00 0.86 0.00 89 1010.3
20240526081528 74 146 2.0 5.0 0.00 0.86 0.00 89 1010.3
20240526081435 74 146 2.0 5.0 0.00 0.86 0.00 89 1010.3
20240526081342 74 132 2.0 5.0 0.00 0.86 0.00 89 1010.3
20240526081228 74 142 3.0 5.0 0.00 0.86 0.00 89 1010.2
20240526081136 74 150 2.0 5.0 0.00 0.86 0.00 89 1010.2
20240526081044 74 131 2.0 5.0 0.00 0.86 0.00 89 1010.2
20240526080935 74 142 2.0 5.0 0.00 0.86 0.00 89 1010.3
20240526080843 74 153 3.0 5.0 0.00 0.86 0.00 89 1010.3
20240526080730 74 110 4.0 5.0 0.00 0.86 0.00 89 1010.3
20240526080638 74 137 4.0 5.0 0.00 0.86 0.00 89 1010.2
20240526080604 74 144 4.0 6.0 0.00 0.86 0.00 89 1010.3
20240526080430 74 129 3.0 5.0 0.00 0.86 0.00 89 1010.3
20240526080340 74 128 2.0 5.0 0.00 0.86 0.00 89 1010.3
20240526080311 74 151 2.0 5.0 0.00 0.86 0.00 89 1010.3
20240526080044 74 144 2.0 5.0 0.00 0.86 0.00 89 1010.3
20240526075931 74 151 2.0 5.0 0.00 0.86 0.00 89 1010.3
20240526075841 74 160 3.0 7.0 0.00 0.86 0.00 89 1010.3
20240526075727 74 145 3.0 7.0 0.00 0.86 0.00 89 1010.3
20240526075654 74 144 3.0 7.0 0.00 0.86 0.00 89 1010.3
20240526075558 74 146 3.0 7.0 0.00 0.86 0.00 89 1010.3
20240526075444 74 143 3.0 7.0 0.00 0.86 0.00 89 1010.3
20240526075330 74 152 3.0 7.0 0.00 0.86 0.00 89 1010.4
20240526075235 74 147 3.0 7.0 0.00 0.86 0.00 89 1010.4
20240526075127 74 144 3.0 7.0 0.00 0.86 0.00 89 1010.3
20240526075034 74 134 3.0 7.0 0.00 0.86 0.00 89 1010.3
20240526074940 74 131 3.0 8.0 0.00 0.86 0.00 89 1010.3
20240526074906 74 142 4.0 8.0 0.00 0.86 0.00 89 1010.2
20240526074837 75 121 4.0 8.0 0.00 0.86 0.00 89 1010.2
20240526074531 75 119 4.0 8.0 0.00 0.86 0.00 89 1010.1
20240526074438 75 134 5.0 8.0 0.00 0.86 0.00 89 1010.2
20240526074344 75 118 5.0 8.0 0.00 0.86 0.00 89 1010.2
20240526074232 75 130 5.0 8.0 0.00 0.86 0.00 89 1010.1
20240526074137 75 121 5.0 8.0 0.00 0.86 0.00 89 1010.2
20240526074103 75 113 5.0 8.0 0.00 0.86 0.00 89 1010.1
20240526073934 75 129 4.0 7.0 0.00 0.86 0.00 89 1010.2
20240526073900 75 133 4.0 5.0 0.00 0.86 0.00 89 1010.1
20240526073745 75 138 3.0 5.0 0.00 0.86 0.00 89 1010.2
20240526073632 75 132 4.0 5.0 0.00 0.86 0.00 89 1010.2
20240526073538 75 142 3.0 5.0 0.00 0.86 0.00 89 1010.2
20240526073429 75 130 3.0 5.0 0.00 0.86 0.00 89 1010.2
20240526073335 75 137 3.0 5.0 0.00 0.86 0.00 89 1010.2
20240526073306 74 124 3.0 5.0 0.00 0.86 0.00 89 1010.2
20240526073059 75 140 3.0 5.0 0.00 0.86 0.00 89 1010.3
20240526072944 75 118 3.0 5.0 0.00 0.86 0.00 89 1010.3
20240526072834 75 127 3.0 4.0 0.00 0.86 0.00 89 1010.3
20240526072742 75 133 3.0 4.0 0.00 0.86 0.00 89 1010.3
20240526072629 75 132 3.0 4.0 0.00 0.86 0.00 89 1010.3
20240526072536 75 108 3.0 4.0 0.00 0.86 0.00 89 1010.3
20240526072443 75 118 3.0 4.0 0.00 0.86 0.00 89 1010.3
20240526072350 75 119 3.0 4.0 0.00 0.86 0.00 89 1010.4
20240526072240 75 124 3.0 4.0 0.00 0.86 0.00 89 1010.5
20240526072146 75 117 3.0 4.0 0.00 0.86 0.00 89 1010.4
20240526072034 75 115 2.0 4.0 0.00 0.86 0.00 89 1010.5
20240526071940 75 115 2.0 4.0 0.00 0.86 0.00 89 1010.5
20240526071906 75 118 2.0 4.0 0.00 0.86 0.00 89 1010.5
20240526071841 75 130 2.0 4.0 0.00 0.86 0.00 89 1010.6
20240526071532 75 112 2.0 4.0 0.00 0.86 0.00 89 1010.5
20240526071439 75 144 2.0 4.0 0.00 0.86 0.00 89 1010.5
20240526071345 75 143 2.0 4.0 0.00 0.86 0.00 89 1010.5
20240526071231 75 139 2.0 4.0 0.00 0.86 0.00 89 1010.5
20240526071138 75 134 2.0 4.0 0.00 0.86 0.00 89 1010.5
20240526071029 75 134 2.0 4.0 0.00 0.86 0.00 89 1010.4
20240526070955 75 135 2.0 4.0 0.00 0.86 0.00 89 1010.4
20240526070843 75 145 2.0 4.0 0.00 0.86 0.00 89 1010.4
20240526070729 75 146 2.0 4.0 0.00 0.86 0.00 90 1010.5
20240526070636 75 139 2.0 4.0 0.00 0.86 0.00 90 1010.5
20240526070526 75 146 3.0 4.0 0.00 0.86 0.00 90 1010.5
20240526070434 75 144 3.0 4.0 0.00 0.86 0.00 90 1010.5
20240526070401 75 141 3.0 4.0 0.00 0.86 0.00 90 1010.5
20240526070311 75 144 3.0 4.0 0.00 0.86 0.00 90 1010.4
20240526070045 75 138 2.0 3.0 0.00 0.86 0.00 90 1010.6
20240526065953 75 137 2.0 3.0 0.00 0.86 0.00 90 1010.7
20240526065843 75 137 2.0 3.0 0.00 0.86 0.00 90 1010.7
20240526065750 75 142 2.0 3.0 0.00 0.86 0.00 90 1010.7
20240526065655 75 140 2.0 3.0 0.00 0.86 0.00 90 1010.7
20240526065542 75 140 2.0 2.0 0.00 0.86 0.00 90 1010.7
20240526065429 75 140 1.0 2.0 0.00 0.86 0.00 90 1010.7
20240526065355 75 100 1.0 2.0 0.00 0.86 0.00 90 1010.6
20240526065241 75 100 1.0 2.0 0.00 0.86 0.00 90 1010.7
20240526065130 75 100 0.0 2.0 0.00 0.86 0.00 89 1010.6
20240526065036 75 100 0.0 2.0 0.00 0.86 0.00 89 1010.6
20240526064944 75 100 0.0 2.0 0.00 0.86 0.00 89 1010.6
20240526064831 75 100 0.0 4.0 0.00 0.86 0.00 89 1010.6
20240526064806 75 100 0.0 4.0 0.00 0.86 0.00 89 1010.6
20240526064540 75 100 0.0 4.0 0.00 0.86 0.00 89 1010.5
20240526064427 75 100 1.0 4.0 0.00 0.86 0.00 89 1010.4
20240526064353 75 100 1.0 4.0 0.00 0.86 0.00 90 1010.4
20240526064239 75 123 1.0 4.0 0.00 0.86 0.00 90 1010.4
20240526064146 75 142 2.0 4.0 0.00 0.86 0.00 90 1010.4
20240526064035 75 142 3.0 5.0 0.00 0.86 0.00 90 1010.4
20240526063942 75 138 3.0 5.0 0.00 0.86 0.00 90 1010.4
20240526063830 75 150 1.0 5.0 0.00 0.86 0.00 89 1010.4
20240526063737 75 195 1.0 5.0 0.00 0.86 0.00 89 1010.4
20240526063705 75 198 1.0 5.0 0.00 0.86 0.00 89 1010.4
20240526063532 75 145 2.0 5.0 0.00 0.86 0.00 89 1010.5
20240526063503 75 140 3.0 5.0 0.00 0.86 0.00 89 1010.4
20240526063349 75 150 3.0 5.0 0.00 0.86 0.00 89 1010.3
20240526063319 75 150 3.0 5.0 0.00 0.86 0.00 89 1010.4
20240526063033 75 123 3.0 4.0 0.00 0.86 0.00 89 1010.4
20240526062939 75 135 2.0 4.0 0.00 0.86 0.00 89 1010.5
20240526062850 75 124 3.0 4.0 0.00 0.86 0.00 89 1010.5
20240526062756 75 129 3.0 4.0 0.00 0.86 0.00 89 1010.4
20240526062640 75 121 3.0 4.0 0.00 0.86 0.00 89 1010.5
20240526062527 75 134 3.0 4.0 0.00 0.86 0.00 89 1010.5
20240526062433 75 123 3.0 4.0 0.00 0.86 0.00 89 1010.5
20240526062339 75 144 3.0 4.0 0.00 0.86 0.00 89 1010.5
20240526062230 75 120 2.0 3.0 0.00 0.86 0.00 89 1010.5
20240526062137 75 116 2.0 3.0 0.00 0.86 0.00 89 1010.6
20240526062044 75 117 2.0 3.0 0.00 0.86 0.00 89 1010.6
20240526061951 75 115 2.0 3.0 0.00 0.86 0.00 89 1010.6
20240526061838 75 128 2.0 3.0 0.00 0.86 0.00 89 1010.6
20240526061813 75 119 2.0 3.0 0.00 0.86 0.00 89 1010.6
20240526061527 75 123 2.0 3.0 0.00 0.86 0.00 89 1010.7
20240526061435 75 115 2.0 3.0 0.00 0.86 0.00 89 1010.7
20240526061340 75 123 2.0 3.0 0.00 0.86 0.00 89 1010.7
20240526061228 75 127 1.0 3.0 0.00 0.86 0.00 89 1010.7
20240526061139 75 144 1.0 3.0 0.00 0.86 0.00 89 1010.7
20240526061045 75 140 0.0 3.0 0.00 0.86 0.00 89 1010.7
20240526060931 75 140 1.0 3.0 0.00 0.86 0.00 88 1010.7
20240526060859 75 140 1.0 3.0 0.00 0.86 0.00 88 1010.7
20240526060744 75 140 1.0 3.0 0.00 0.86 0.00 88 1010.6
20240526060630 75 105 2.0 3.0 0.00 0.86 0.00 88 1010.6
20240526060557 75 112 2.0 3.0 0.00 0.86 0.00 88 1010.6
20240526060428 75 119 2.0 3.0 0.00 0.86 0.00 88 1010.6
20240526060334 75 118 1.0 3.0 0.00 0.86 0.00 88 1010.6
20240526060304 75 119 1.0 3.0 0.00 0.86 0.00 88 1010.6
20240526060037 75 105 1.0 3.0 0.00 0.86 0.00 88 1010.7
20240526055928 76 86 1.0 3.0 0.00 0.86 0.00 88 1010.7
20240526055834 76 86 1.0 3.0 0.00 0.86 0.00 88 1010.7
20240526055741 76 111 2.0 3.0 0.00 0.86 0.00 88 1010.8
20240526055628 76 100 2.0 3.0 0.00 0.86 0.00 88 1010.9
20240526055536 76 111 1.0 2.0 0.00 0.86 0.00 88 1010.9
20240526055427 76 163 1.0 3.0 0.00 0.86 0.00 88 1011.0
20240526055334 76 181 0.0 3.0 0.00 0.86 0.00 88 1011.0
20240526055239 76 181 1.0 3.0 0.00 0.86 0.00 88 1011.0
20240526055127 76 181 0.0 3.0 0.00 0.86 0.00 88 1011.0
20240526055034 76 181 0.0 3.0 0.00 0.86 0.00 88 1011.0
20240526054939 76 181 0.0 3.0 0.00 0.86 0.00 88 1011.1
20240526054829 76 181 1.0 5.0 0.00 0.86 0.00 88 1011.1
20240526054800 76 181 1.0 5.0 0.00 0.86 0.00 88 1011.1
20240526054532 76 181 1.0 5.0 0.00 0.86 0.00 88 1011.2
20240526054459 76 181 2.0 5.0 0.00 0.86 0.00 88 1011.2
20240526054345 76 181 2.0 5.0 0.00 0.86 0.00 88 1011.2
20240526054235 76 146 2.0 5.0 0.00 0.86 0.00 88 1011.2
20240526054141 76 146 2.0 5.0 0.00 0.86 0.00 88 1011.1
20240526054028 76 149 2.0 5.0 0.00 0.86 0.86 88 1011.1
20240526053934 76 148 2.0 5.0 0.00 0.86 0.86 88 1011.1
20240526053902 76 150 1.0 3.0 0.00 0.86 0.86 88 1011.2
20240526053727 76 190 0.0 3.0 0.00 0.86 0.86 88 1011.2
20240526053658 76 190 0.0 3.0 0.00 0.86 0.86 88 1011.2
20240526053544 76 190 1.0 3.0 0.00 0.86 0.86 88 1011.2
20240526053450 76 190 1.0 3.0 0.00 0.86 0.86 88 1011.3
20240526053355 76 186 1.0 3.0 0.00 0.86 0.86 88 1011.3
20240526053304 76 155 1.0 3.0 0.00 0.86 0.86 88 1011.3
20240526053038 76 132 1.0 3.0 0.00 0.86 0.86 88 1011.3
20240526052929 76 100 1.0 3.0 0.00 0.86 0.86 88 1011.2
20240526052837 76 100 1.0 3.0 0.00 0.86 0.86 88 1011.2
20240526052804 76 100 2.0 3.0 0.00 0.86 0.86 88 1011.2
20240526052630 76 100 2.0 3.0 0.00 0.86 0.86 88 1011.1
20240526052536 76 96 2.0 3.0 0.00 0.86 0.86 88 1011.1
20240526052427 76 109 1.0 3.0 0.00 0.86 0.86 87 1011.1
20240526052332 76 81 1.0 3.0 0.00 0.86 0.86 87 1011.1
20240526052259 76 81 1.0 4.0 0.00 0.86 0.86 87 1011.0
20240526052143 76 81 1.0 4.0 0.00 0.86 0.86 87 1011.1
20240526052029 76 98 1.0 4.0 0.00 0.86 0.86 87 1011.1
20240526051956 76 69 2.0 4.0 0.00 0.86 0.86 87 1011.1
20240526051901 76 83 2.0 4.0 0.00 0.86 0.86 87 1011.1
20240526051815 76 116 2.0 4.0 0.00 0.86 0.86 87 1011.1
20240526051527 76 74 1.0 4.0 0.00 0.86 0.86 87 1011.2
20240526051434 76 63 1.0 4.0 0.00 0.86 0.86 87 1011.2
20240526051342 76 83 1.0 3.0 0.00 0.86 0.86 87 1011.1
20240526051227 76 82 1.0 4.0 0.00 0.86 0.86 87 1011.2
20240526051158 76 74 1.0 4.0 0.00 0.86 0.86 87 1011.2
20240526051043 76 110 0.0 4.0 0.00 0.86 0.86 87 1011.2
20240526050929 76 110 2.0 4.0 0.00 0.86 0.86 87 1011.2
20240526050835 76 110 2.0 4.0 0.00 0.86 0.86 87 1011.2
20240526050742 76 127 2.0 4.0 0.00 0.86 0.86 87 1011.2
20240526050629 76 99 2.0 4.0 0.00 0.86 0.86 86 1011.2
20240526050539 76 113 2.0 4.0 0.00 0.86 0.86 86 1011.2
20240526050445 76 111 2.0 4.0 0.00 0.86 0.86 86 1011.3
20240526050332 76 122 2.0 4.0 0.00 0.86 0.86 86 1011.2
20240526050304 76 116 2.0 3.0 0.00 0.86 0.86 86 1011.3
20240526050040 76 135 2.0 3.0 0.00 0.86 0.86 86 1011.3
20240526045927 76 119 2.0 3.0 0.00 0.86 0.86 86 1011.3
20240526045834 76 125 2.0 3.0 0.00 0.86 0.86 86 1011.3
20240526045742 76 123 2.0 3.0 0.00 0.86 0.86 86 1011.3
20240526045629 76 123 2.0 3.0 0.00 0.86 0.86 86 1011.3
20240526045535 76 123 2.0 3.0 0.00 0.86 0.86 86 1011.3
20240526045427 76 123 2.0 3.0 0.00 0.86 0.86 86 1011.3
20240526045333 76 120 2.0 4.0 0.00 0.86 0.86 86 1011.3
20240526045239 76 117 2.0 4.0 0.00 0.86 0.86 86 1011.3
20240526045146 77 117 2.0 4.0 0.00 0.86 0.86 86 1011.3
20240526045052 76 113 2.0 4.0 0.00 0.86 0.86 86 1011.4
20240526044938 77 105 2.0 4.0 0.00 0.86 0.86 86 1011.5
20240526044827 77 112 2.0 4.0 0.00 0.86 0.86 86 1011.4
20240526044800 77 112 2.0 4.0 0.00 0.86 0.86 86 1011.4
20240526044533 77 111 3.0 4.0 0.00 0.86 0.86 85 1011.5
20240526044439 77 123 3.0 4.0 0.00 0.86 0.86 85 1011.4
20240526044329 77 123 3.0 4.0 0.00 0.86 0.86 85 1011.5
20240526044236 77 110 3.0 4.0 0.00 0.86 0.86 85 1011.5
20240526044144 77 119 3.0 3.0 0.00 0.86 0.86 85 1011.6
20240526044031 77 115 3.0 3.0 0.00 0.86 0.86 85 1011.7
20240526043937 77 110 2.0 3.0 0.00 0.86 0.86 85 1011.8
20240526043830 77 109 2.0 3.0 0.00 0.86 0.86 85 1011.8
20240526043737 77 119 2.0 3.0 0.00 0.86 0.86 85 1011.8
20240526043643 77 109 2.0 3.0 0.00 0.86 0.86 85 1011.8
20240526043550 77 128 2.0 3.0 0.00 0.86 0.86 85 1011.7
20240526043457 77 118 2.0 3.0 0.00 0.86 0.86 85 1011.7
20240526043315 77 115 2.0 3.0 0.00 0.86 0.86 85 1011.8
20240526043028 77 126 1.0 3.0 0.00 0.86 0.86 86 1011.9
20240526042934 77 141 1.0 3.0 0.00 0.86 0.86 86 1011.9
20240526042840 77 141 1.0 3.0 0.00 0.86 0.86 86 1011.8
20240526042748 77 141 2.0 3.0 0.00 0.86 0.86 86 1011.8
20240526042655 77 141 2.0 3.0 0.00 0.86 0.86 86 1011.8
20240526042559 77 137 1.0 3.0 0.00 0.86 0.86 86 1011.8
20240526042428 77 145 2.0 3.0 0.00 0.86 0.86 86 1011.9
20240526042336 77 142 2.0 3.0 0.00 0.86 0.86 86 1011.9
20240526042243 77 149 2.0 3.0 0.00 0.86 0.86 86 1011.9
20240526042130 77 146 2.0 2.0 0.00 0.86 0.86 86 1011.9
20240526042038 77 138 2.0 2.0 0.00 0.86 0.86 86 1011.9
20240526041929 77 138 1.0 2.0 0.00 0.86 0.86 86 1011.9
20240526041836 77 138 1.0 2.0 0.00 0.86 0.86 86 1011.9
20240526041808 77 138 0.0 2.0 0.00 0.86 0.86 85 1012.0
20240526041541 77 160 0.0 1.0 0.00 0.86 0.86 85 1012.0
20240526041432 77 160 0.0 1.0 0.00 0.86 0.86 85 1011.9
20240526041339 77 160 0.0 1.0 0.00 0.86 0.86 85 1011.9
20240526041246 77 196 0.0 1.0 0.00 0.86 0.86 85 1012.0
20240526041133 77 261 0.0 0.0 0.00 0.86 0.86 85 1012.0
20240526041039 77 311 0.0 0.0 0.00 0.86 0.86 85 1012.1
20240526041005 77 311 0.0 0.0 0.00 0.86 0.86 85 1012.1
20240526040834 77 311 0.0 0.0 0.00 0.86 0.86 85 1012.1
20240526040740 77 311 0.0 0.0 0.00 0.86 0.86 85 1012.1
20240526040627 77 311 0.0 0.0 0.00 0.86 0.86 84 1012.0
20240526040534 77 311 0.0 0.0 0.00 0.86 0.86 84 1012.0
20240526040441 77 311 0.0 0.0 0.00 0.86 0.86 84 1012.0
20240526040320 77 311 0.0 0.0 0.00 0.86 0.86 84 1011.9
20240526040032 77 311 0.0 0.0 0.00 0.86 0.86 84 1012.0
20240526035938 77 311 0.0 0.0 0.00 0.86 0.86 84 1011.9
20240526035845 77 311 0.0 0.0 0.00 0.86 0.86 84 1012.0
20240526035735 77 311 0.0 0.0 0.00 0.86 0.86 84 1012.0
20240526035642 77 311 0.0 0.0 0.00 0.86 0.86 84 1012.0
20240526035550 77 311 0.0 0.0 0.00 0.86 0.86 84 1012.0
20240526035437 77 311 0.0 0.0 0.00 0.86 0.86 84 1012.0
20240526035344 77 311 0.0 0.0 0.00 0.86 0.86 84 1012.1
20240526035229 77 311 0.0 0.0 0.00 0.86 0.86 84 1012.1
20240526035140 77 311 0.0 0.0 0.00 0.86 0.86 84 1012.1
20240526035046 77 311 0.0 0.0 0.00 0.86 0.86 84 1012.1
20240526034932 77 311 0.0 0.0 0.00 0.86 0.86 84 1012.1
20240526034839 77 311 0.0 0.0 0.00 0.86 0.86 84 1012.0
20240526034808 77 311 0.0 0.0 0.00 0.86 0.86 84 1012.0
20240526034546 77 311 0.0 0.0 0.00 0.86 0.86 84 1012.0
20240526034434 77 311 0.0 0.0 0.00 0.86 0.86 84 1012.0
20240526034340 77 311 0.0 0.0 0.00 0.86 0.86 84 1012.1
20240526034246 77 311 0.0 1.0 0.00 0.86 0.86 84 1012.0
20240526034132 77 311 0.0 2.0 0.00 0.86 0.86 84 1012.1
20240526034043 77 311 0.0 2.0 0.00 0.86 0.86 83 1012.0
20240526033929 77 311 0.0 2.0 0.00 0.86 0.86 83 1012.0
20240526033837 77 311 0.0 2.0 0.00 0.86 0.86 83 1012.0
20240526033803 77 311 0.0 2.0 0.00 0.86 0.86 83 1012.0
20240526033629 77 311 0.0 2.0 0.00 0.86 0.86 82 1011.9
20240526033537 77 311 1.0 2.0 0.00 0.86 0.86 82 1011.9
20240526033427 77 311 1.0 2.0 0.00 0.86 0.86 82 1011.9
20240526033333 77 311 1.0 2.0 0.00 0.86 0.86 82 1011.9
20240526033305 77 311 1.0 2.0 0.00 0.86 0.86 82 1011.9
20240526033057 78 311 0.0 2.0 0.00 0.86 0.86 82 1011.9
20240526032943 78 311 0.0 1.0 0.00 0.86 0.86 82 1011.9
20240526032854 78 311 0.0 0.0 0.00 0.86 0.86 82 1011.8
20240526032739 78 311 0.0 0.0 0.00 0.86 0.86 82 1011.9
20240526032645 78 311 0.0 0.0 0.00 0.86 0.86 82 1011.8
20240526032532 78 311 0.0 0.0 0.00 0.86 0.86 82 1011.8
20240526032438 78 311 0.0 0.0 0.00 0.86 0.86 82 1011.8
20240526032405 78 311 0.0 0.0 0.00 0.86 0.86 81 1011.7
20240526032234 78 311 0.0 0.0 0.00 0.86 0.86 81 1011.8
20240526032141 78 311 0.0 0.0 0.00 0.86 0.86 81 1011.8
20240526032029 78 311 0.0 0.0 0.00 0.86 0.86 81 1011.7
20240526031936 78 311 0.0 0.0 0.00 0.86 0.86 81 1011.7
20240526031818 78 311 0.0 0.0 0.00 0.86 0.86 81 1011.6
20240526031531 78 311 0.0 0.0 0.00 0.86 0.86 81 1011.6
20240526031437 78 311 0.0 0.0 0.00 0.86 0.86 81 1011.6
20240526031345 78 311 0.0 0.0 0.00 0.86 0.86 81 1011.7
20240526031232 78 311 0.0 0.0 0.00 0.86 0.86 81 1011.8
20240526031143 78 311 0.0 0.0 0.00 0.86 0.86 81 1011.8
20240526031029 78 311 0.0 0.0 0.00 0.86 0.86 81 1011.8
20240526030935 78 311 0.0 0.0 0.00 0.86 0.86 81 1011.8
20240526030841 78 311 0.0 1.0 0.00 0.86 0.86 80 1011.8
20240526030727 78 311 0.0 1.0 0.00 0.86 0.86 80 1011.8
20240526030653 78 311 0.0 1.0 0.00 0.86 0.86 80 1011.8
20240526030543 78 311 0.0 1.0 0.00 0.86 0.86 80 1011.8
20240526030450 78 311 0.0 1.0 0.00 0.86 0.86 80 1011.8
20240526030357 78 311 0.0 1.0 0.00 0.86 0.86 80 1011.8
20240526030307 78 311 0.0 1.0 0.00 0.86 0.86 80 1011.7
20240526030040 79 311 0.0 1.0 0.00 0.86 0.86 79 1011.7
20240526025948 79 311 0.0 1.0 0.00 0.86 0.86 79 1011.6
20240526025858 79 311 0.0 1.0 0.00 0.86 0.86 79 1011.6
20240526025742 79 311 0.0 1.0 0.00 0.86 0.86 79 1011.6
20240526025629 79 311 0.0 1.0 0.00 0.86 0.86 79 1011.5
20240526025535 79 311 0.0 1.0 0.00 0.86 0.86 79 1011.5
20240526025441 79 311 0.0 1.0 0.00 0.86 0.86 79 1011.4
20240526025348 79 311 0.0 1.0 0.00 0.86 0.86 79 1011.3
20240526025255 79 311 0.0 1.0 0.00 0.86 0.86 79 1011.3
20240526025145 79 311 0.0 1.0 0.00 0.86 0.86 78 1011.3
20240526025032 79 311 0.0 2.0 0.00 0.86 0.86 78 1011.4
20240526024938 79 311 0.0 2.0 0.00 0.86 0.86 78 1011.4
20240526024844 79 311 0.0 2.0 0.00 0.86 0.86 78 1011.3
20240526024819 79 330 0.0 2.0 0.00 0.86 0.86 78 1011.3
20240526024551 79 340 0.0 2.0 0.00 0.86 0.86 78 1011.4
20240526024435 80 340 0.0 2.0 0.00 0.86 0.86 78 1011.4
20240526024343 80 326 0.0 2.0 0.00 0.86 0.86 78 1011.5
20240526024230 80 314 1.0 2.0 0.00 0.86 0.86 78 1011.5
20240526024136 80 329 0.0 2.0 0.00 0.86 0.86 78 1011.5
20240526024102 80 207 0.0 1.0 0.00 0.86 0.86 78 1011.6
20240526023932 80 207 0.0 1.0 0.00 0.86 0.86 78 1011.6
20240526023837 80 207 0.0 2.0 0.00 0.86 0.86 78 1011.7
20240526023805 80 207 0.0 4.0 0.00 0.86 0.86 78 1011.6
20240526023631 80 207 0.0 4.0 0.00 0.86 0.86 78 1011.6
20240526023537 80 207 0.0 4.0 0.00 0.86 0.86 78 1011.7
20240526023503 80 176 0.0 4.0 0.00 0.86 0.86 78 1011.6
20240526023352 80 173 0.0 4.0 0.00 0.86 0.86 78 1011.7
20240526023303 80 173 0.0 4.0 0.00 0.86 0.86 78 1011.6
20240526023035 80 219 2.0 5.0 0.00 0.86 0.86 78 1011.6
20240526022941 80 218 2.0 5.0 0.00 0.86 0.86 78 1011.6
20240526022827 80 188 1.0 5.0 0.00 0.86 0.86 78 1011.6
20240526022738 80 193 0.0 5.0 0.00 0.86 0.86 78 1011.6
20240526022645 80 214 0.0 5.0 0.00 0.86 0.86 78 1011.6
20240526022552 80 188 0.0 5.0 0.00 0.86 0.86 78 1011.8
20240526022438 80 188 2.0 5.0 0.00 0.86 0.86 78 1011.7
20240526022344 80 188 3.0 5.0 0.00 0.86 0.86 78 1011.7
20240526022233 80 207 2.0 5.0 0.00 0.86 0.86 78 1011.7
20240526022204 80 180 2.0 5.0 0.00 0.86 0.86 78 1011.7
20240526022028 79 204 3.0 5.0 0.00 0.86 0.86 79 1011.7
20240526021934 79 196 4.0 5.0 0.00 0.86 0.86 79 1011.7
20240526021842 79 182 3.0 5.0 0.00 0.86 0.86 79 1011.7
20240526021812 79 164 3.0 5.0 0.00 0.86 0.86 79 1011.6
20240526021529 79 213 1.0 3.0 0.00 0.86 0.86 79 1011.5
20240526021436 79 213 0.0 3.0 0.00 0.86 0.86 79 1011.5
20240526021344 79 213 1.0 3.0 0.00 0.86 0.86 79 1011.5
20240526021231 79 213 1.0 3.0 0.00 0.86 0.86 79 1011.5
20240526021138 79 220 1.0 3.0 0.00 0.86 0.86 79 1011.5
20240526021030 79 189 1.0 3.0 0.00 0.86 0.86 79 1011.4
20240526020938 79 219 1.0 2.0 0.00 0.86 0.86 79 1011.4
20240526020844 79 217 1.0 2.0 0.00 0.86 0.86 79 1011.4
20240526020751 79 244 0.0 2.0 0.00 0.86 0.86 79 1011.6
20240526020656 79 244 0.0 2.0 0.00 0.86 0.86 79 1011.6
20240526020542 79 221 0.0 2.0 0.00 0.86 0.86 78 1011.6
20240526020432 79 272 0.0 2.0 0.00 0.86 0.86 78 1011.6
20240526020338 80 272 0.0 2.0 0.00 0.86 0.86 78 1011.4
20240526020308 80 271 1.0 2.0 0.00 0.86 0.86 78 1011.5
20240526020041 80 272 1.0 2.0 0.00 0.86 0.86 78 1011.6
20240526015929 80 272 1.0 2.0 0.00 0.86 0.86 78 1011.6
20240526015900 80 246 0.0 1.0 0.00 0.86 0.86 78 1011.6
20240526015746 80 133 0.0 0.0 0.00 0.86 0.86 78 1011.5
20240526015632 80 133 0.0 0.0 0.00 0.86 0.86 77 1011.4
20240526015538 80 133 0.0 1.0 0.00 0.86 0.86 77 1011.4
20240526015445 80 133 0.0 1.0 0.00 0.86 0.86 77 1011.4
20240526015331 80 133 0.0 1.0 0.00 0.86 0.86 77 1011.3
20240526015242 80 133 0.0 1.0 0.00 0.86 0.86 77 1011.3
20240526015127 80 133 0.0 1.0 0.00 0.86 0.86 77 1011.2
20240526015035 80 133 0.0 1.0 0.00 0.86 0.86 77 1011.2
20240526015003 80 133 0.0 1.0 0.00 0.86 0.86 76 1011.1
20240526014829 80 133 0.0 1.0 0.00 0.86 0.86 76 1011.1
20240526014804 80 133 0.0 1.0 0.00 0.86 0.86 76 1011.1
20240526014536 80 133 0.0 1.0 0.00 0.86 0.86 76 1011.0
20240526014444 80 133 0.0 1.0 0.00 0.86 0.86 76 1011.1
20240526014331 80 133 0.0 1.0 0.00 0.86 0.86 76 1011.1
20240526014258 80 133 0.0 1.0 0.00 0.86 0.86 76 1011.0
20240526014128 81 133 0.0 0.0 0.00 0.86 0.86 76 1011.0
20240526014035 81 133 0.0 0.0 0.00 0.86 0.86 75 1011.0
20240526013940 81 133 0.0 0.0 0.00 0.86 0.86 76 1011.1
20240526013827 81 133 0.0 0.0 0.00 0.86 0.86 75 1011.0
20240526013734 81 133 0.0 0.0 0.00 0.86 0.86 75 1011.0
20240526013641 81 133 0.0 0.0 0.00 0.86 0.86 75 1010.9
20240526013533 81 133 0.0 0.0 0.00 0.86 0.86 75 1010.9
20240526013439 81 133 0.0 0.0 0.00 0.86 0.86 75 1010.9
20240526013345 81 133 0.0 0.0 0.00 0.86 0.86 75 1010.9
20240526013316 81 133 0.0 0.0 0.00 0.86 0.86 75 1010.8
20240526013032 81 133 0.0 0.0 0.00 0.86 0.86 75 1010.9
20240526012939 81 133 0.0 1.0 0.00 0.86 0.86 75 1010.8
20240526012905 81 133 0.0 1.0 0.00 0.86 0.86 74 1010.8
20240526012731 81 133 0.0 1.0 0.00 0.86 0.86 73 1010.8
20240526012638 82 133 0.0 1.0 0.00 0.86 0.86 73 1010.8
20240526012545 82 133 0.0 1.0 0.00 0.86 0.86 73 1010.8
20240526012435 82 133 0.0 1.0 0.00 0.86 0.86 72 1010.8
20240526012343 82 133 0.0 1.0 0.00 0.86 0.86 72 1010.8
20240526012229 82 133 0.0 1.0 0.00 0.86 0.86 71 1010.7
20240526012135 82 133 0.0 1.0 0.00 0.86 0.86 71 1010.7
20240526012043 82 133 0.0 1.0 0.00 0.86 0.86 71 1010.7
20240526011929 82 133 0.0 1.0 0.00 0.86 0.86 70 1010.6
20240526011839 82 133 0.0 0.0 0.00 0.86 0.86 70 1010.6
20240526011810 83 133 0.0 0.0 0.00 0.86 0.86 70 1010.7
20240526011543 83 133 0.0 0.0 0.00 0.86 0.86 70 1010.7
20240526011430 83 133 0.0 0.0 0.00 0.86 0.86 70 1010.7
20240526011341 83 133 0.0 0.0 0.00 0.86 0.86 70 1010.7
20240526011227 83 133 0.0 1.0 0.00 0.86 0.86 70 1010.6
20240526011135 83 133 0.0 2.0 0.00 0.86 0.86 70 1010.6
20240526011043 83 133 0.0 3.0 0.00 0.86 0.86 69 1010.6
20240526010929 83 133 0.0 3.0 0.00 0.86 0.86 69 1010.5
20240526010835 83 133 0.0 3.0 0.00 0.86 0.86 69 1010.5
20240526010727 83 133 0.0 3.0 0.00 0.86 0.86 68 1010.5
20240526010634 83 133 0.0 3.0 0.00 0.86 0.86 67 1010.5
20240526010541 83 133 0.0 3.0 0.00 0.86 0.86 68 1010.5
20240526010446 83 133 1.0 3.0 0.00 0.86 0.86 68 1010.4
20240526010334 83 133 1.0 3.0 0.00 0.86 0.86 68 1010.4
20240526010308 83 133 1.0 3.0 0.00 0.86 0.86 68 1010.4
20240526010041 83 150 1.0 3.0 0.00 0.86 0.86 67 1010.4
20240526005928 84 150 1.0 3.0 0.00 0.86 0.86 67 1010.4
20240526005854 84 150 1.0 4.0 0.00 0.86 0.86 68 1010.4
20240526005739 84 138 1.0 4.0 0.00 0.86 0.86 67 1010.5
20240526005631 84 140 1.0 4.0 0.00 0.86 0.86 67 1010.4
20240526005538 84 112 1.0 4.0 0.00 0.86 0.86 67 1010.4
20240526005444 84 146 0.0 4.0 0.00 0.86 0.86 67 1010.4
20240526005331 84 138 1.0 4.0 0.00 0.86 0.86 67 1010.4
20240526005238 84 138 2.0 4.0 0.00 0.86 0.86 67 1010.4
20240526005203 84 138 2.0 4.0 0.00 0.86 0.86 67 1010.5
20240526005033 84 146 1.0 4.0 0.00 0.86 0.86 67 1010.5
20240526004941 84 123 1.0 5.0 0.00 0.86 0.86 67 1010.4
20240526004907 84 124 0.0 5.0 0.00 0.86 0.86 66 1010.5
20240526004815 84 153 0.0 5.0 0.00 0.86 0.86 66 1010.4
20240526004528 84 159 0.0 5.0 0.00 0.86 0.86 66 1010.4
20240526004456 84 196 1.0 5.0 0.00 0.86 0.86 66 1010.4
20240526004327 84 196 2.0 5.0 0.00 0.86 0.86 66 1010.4
20240526004233 84 161 3.0 5.0 0.00 0.86 0.86 66 1010.4
20240526004141 84 198 2.0 5.0 0.00 0.86 0.86 66 1010.4
20240526004028 84 186 2.0 5.0 0.00 0.86 0.86 66 1010.4
20240526003936 84 189 2.0 5.0 0.00 0.86 0.86 66 1010.4
20240526003827 84 214 3.0 5.0 0.00 0.86 0.86 66 1010.4
20240526003734 84 200 4.0 5.0 0.00 0.86 0.86 66 1010.4
20240526003700 84 215 4.0 5.0 0.00 0.86 0.86 65 1010.4
20240526003546 84 213 3.0 5.0 0.00 0.86 0.86 65 1010.3
20240526003435 84 211 1.0 4.0 0.00 0.86 0.86 65 1010.3
20240526003341 84 171 1.0 2.0 0.00 0.86 0.86 66 1010.3
20240526003316 85 210 0.0 2.0 0.00 0.86 0.86 66 1010.4
20240526003029 85 276 0.0 2.0 0.00 0.86 0.86 66 1010.3
20240526002936 85 276 1.0 2.0 0.00 0.86 0.86 65 1010.3
20240526002842 85 276 1.0 2.0 0.00 0.86 0.86 65 1010.4
20240526002733 85 276 1.0 2.0 0.00 0.86 0.86 65 1010.4
20240526002640 85 276 1.0 2.0 0.00 0.86 0.86 65 1010.4
20240526002546 85 267 1.0 2.0 0.00 0.86 0.86 65 1010.4
20240526002432 85 277 1.0 2.0 0.00 0.86 0.86 65 1010.4
20240526002339 85 277 1.0 2.0 0.00 0.86 0.86 65 1010.3
20240526002244 85 278 1.0 2.0 0.00 0.86 0.86 64 1010.3
20240526002136 85 286 1.0 2.0 0.00 0.86 0.86 64 1010.4
20240526002043 85 284 1.0 2.0 0.00 0.86 0.86 64 1010.3
20240526001929 85 281 1.0 3.0 0.00 0.86 0.86 64 1010.3
20240526001835 85 275 1.0 3.0 0.00 0.86 0.86 64 1010.3
20240526001812 85 276 1.0 3.0 0.00 0.86 0.86 64 1010.3
20240526001545 85 280 2.0 3.0 0.00 0.86 0.86 64 1010.3
20240526001451 85 279 2.0 3.0 0.00 0.86 0.86 64 1010.4
20240526001358 85 273 2.0 3.0 0.00 0.86 0.86 64 1010.4
20240526001244 85 277 2.0 3.0 0.00 0.86 0.86 64 1010.4
20240526001130 85 279 2.0 3.0 0.00 0.86 0.86 64 1010.3
20240526001057 85 281 2.0 3.0 0.00 0.86 0.86 64 1010.3
20240526000947 85 290 2.0 3.0 0.00 0.86 0.86 64 1010.4
20240526000854 85 285 2.0 3.0 0.00 0.86 0.86 64 1010.4
20240526000802 85 286 2.0 3.0 0.00 0.86 0.86 64 1010.3
20240526000646 85 279 1.0 3.0 0.00 0.86 0.86 63 1010.4
20240526000554 85 281 1.0 3.0 0.00 0.86 0.86 63 1010.2
20240526000441 85 258 1.0 3.0 0.00 0.86 0.86 63 1010.3
20240526000407 85 254 1.0 3.0 0.00 0.86 0.86 63 1010.3
20240526000320 85 277 2.0 3.0 0.00 0.86 0.86 63 1010.3
20240526000033 86 271 2.0 3.0 0.00 0.86 0.86 62 1010.3
20240526000000 85 290 2.0 3.0 0.00 0.86 0.86 62 1010.3
20240525235845 86 274 2.0 3.0 0.00 0.86 0.86 62 1010.3
20240525235732 86 270 2.0 4.0 0.00 0.86 0.86 62 1010.3
20240525235639 86 261 1.0 4.0 0.00 0.86 0.86 62 1010.3
20240525235531 86 273 1.0 4.0 0.00 0.86 0.86 62 1010.3
20240525235438 86 273 1.0 4.0 0.00 0.86 0.86 62 1010.3
20240525235344 86 273 1.0 4.0 0.00 0.86 0.86 62 1010.3
20240525235231 86 282 1.0 4.0 0.00 0.86 0.86 62 1010.4
20240525235158 86 245 2.0 4.0 0.00 0.86 0.86 62 1010.3
20240525235028 86 267 2.0 4.0 0.00 0.86 0.86 62 1010.4
20240525234934 86 260 2.0 4.0 0.00 0.86 0.86 62 1010.4
20240525234841 86 292 1.0 4.0 0.00 0.86 0.86 62 1010.3
20240525234811 86 265 1.0 4.0 0.00 0.86 0.86 62 1010.4
20240525234543 86 263 2.0 5.0 0.00 0.86 0.86 62 1010.4
20240525234434 86 262 2.0 5.0 0.00 0.86 0.86 62 1010.4
20240525234402 86 267 2.0 5.0 0.00 0.86 0.86 62 1010.3
20240525234229 86 273 2.0 5.0 0.00 0.86 0.86 61 1010.3
20240525234157 86 277 2.0 5.0 0.00 0.86 0.86 61 1010.3
20240525234043 86 263 2.0 5.0 0.00 0.86 0.86 61 1010.3
20240525233931 86 282 2.0 5.0 0.00 0.86 0.86 61 1010.3
20240525233842 86 279 1.0 4.0 0.00 0.86 0.86 61 1010.2
20240525233729 86 235 1.0 4.0 0.00 0.86 0.86 61 1010.3
20240525233635 86 211 2.0 5.0 0.00 0.86 0.86 61 1010.3
20240525233602 86 224 2.0 5.0 0.00 0.86 0.86 61 1010.2
20240525233446 86 247 3.0 5.0 0.00 0.86 0.86 61 1010.2
20240525233334 86 259 2.0 5.0 0.00 0.86 0.86 61 1010.2
20240525233308 86 257 2.0 5.0 0.00 0.86 0.86 61 1010.2
20240525233041 86 240 2.0 5.0 0.00 0.86 0.86 60 1010.2
20240525232927 86 229 3.0 5.0 0.00 0.86 0.86 59 1010.2
20240525232834 86 211 3.0 5.0 0.00 0.86 0.86 60 1010.2
20240525232801 87 216 3.0 5.0 0.00 0.86 0.86 59 1010.2
20240525232631 87 207 3.0 5.0 0.00 0.86 0.86 59 1010.1
20240525232537 87 216 2.0 5.0 0.00 0.86 0.86 60 1010.2
20240525232444 87 225 2.0 5.0 0.00 0.86 0.86 60 1010.1
20240525232332 87 263 2.0 5.0 0.00 0.86 0.86 59 1010.2
20240525232258 87 243 2.0 5.0 0.00 0.86 0.86 59 1010.2
20240525232203 87 211 2.0 5.0 0.00 0.86 0.86 59 1010.2
20240525232033 87 234 3.0 5.0 0.00 0.86 0.86 59 1010.2
20240525231940 87 216 3.0 5.0 0.00 0.86 0.86 59 1010.1
20240525231848 87 233 3.0 6.0 0.00 0.86 0.86 59 1010.1
20240525231819 87 238 2.0 6.0 0.00 0.86 0.86 58 1010.1
20240525231532 87 186 0.0 6.0 0.00 0.86 0.86 58 1010.1
20240525231441 87 281 0.0 6.0 0.00 0.86 0.86 60 1010.1
20240525231347 87 276 1.0 7.0 0.00 0.86 0.86 59 1010.1
20240525231234 87 276 2.0 7.0 0.00 0.86 0.86 59 1010.1
20240525231140 87 280 3.0 7.0 0.00 0.86 0.86 60 1010.2
20240525231026 87 273 3.0 7.0 0.00 0.86 0.86 59 1010.2
20240525230932 87 269 2.0 7.0 0.00 0.86 0.86 60 1010.2
20240525230904 87 288 2.0 7.0 0.00 0.86 0.86 59 1010.2
20240525230729 87 253 3.0 7.0 0.00 0.86 0.86 59 1010.2
20240525230656 87 255 3.0 7.0 0.00 0.86 0.86 60 1010.2
20240525230541 87 259 3.0 7.0 0.00 0.86 0.86 61 1010.2
20240525230429 87 299 1.0 7.0 0.00 0.86 0.86 61 1010.2
20240525230335 87 205 2.0 7.0 0.00 0.86 0.86 60 1010.2
20240525230310 87 227 2.0 7.0 0.00 0.86 0.86 59 1010.1
20240525230043 87 258 4.0 7.0 0.00 0.86 0.86 60 1010.1
20240525225950 87 239 4.0 7.0 0.00 0.86 0.86 60 1010.1
20240525225835 87 253 3.0 7.0 0.00 0.86 0.86 60 1010.1
20240525225741 87 246 3.0 7.0 0.00 0.86 0.86 60 1010.1
20240525225631 87 261 3.0 7.0 0.00 0.86 0.86 60 1010.1
20240525225539 87 199 3.0 7.0 0.00 0.86 0.86 60 1010.2
20240525225445 87 195 2.0 7.0 0.00 0.86 0.86 60 1010.1
20240525225332 87 188 1.0 7.0 0.00 0.86 0.86 60 1010.1
20240525225239 87 203 1.0 7.0 0.00 0.86 0.86 60 1010.2
20240525225206 87 169 2.0 7.0 0.00 0.86 0.86 59 1010.1
20240525225035 87 220 4.0 7.0 0.00 0.86 0.86 59 1010.1
20240525224941 87 205 4.0 7.0 0.00 0.86 0.86 59 1010.2
20240525224849 87 240 4.0 7.0 0.00 0.86 0.86 59 1010.2
20240525224818 87 233 4.0 7.0 0.00 0.86 0.86 60 1010.2
20240525224536 87 253 4.0 7.0 0.00 0.86 0.86 59 1010.2
20240525224443 87 290 4.0 7.0 0.00 0.86 0.86 59 1010.2
20240525224331 87 286 4.0 7.0 0.00 0.86 0.86 60 1010.2
20240525224257 87 225 4.0 7.0 0.00 0.86 0.86 60 1010.2
20240525224144 87 277 4.0 8.0 0.00 0.86 0.86 60 1010.2
20240525224031 87 258 3.0 10.0 0.00 0.86 0.86 60 1010.1
20240525223943 87 288 3.0 10.0 0.00 0.86 0.86 59 1010.1
20240525223831 87 271 3.0 10.0 0.00 0.86 0.86 60 1010.2
20240525223757 87 280 4.0 10.0 0.00 0.86 0.86 60 1010.2
20240525223644 87 259 3.0 10.0 0.00 0.86 0.86 59 1010.1
20240525223532 87 262 4.0 10.0 0.00 0.86 0.86 59 1010.1
20240525223438 87 226 5.0 10.0 0.00 0.86 0.86 59 1010.1
20240525223329 87 234 4.0 10.0 0.00 0.86 0.86 59 1010.2
20240525223301 87 238 4.0 10.0 0.00 0.86 0.86 59 1010.2
20240525223034 87 286 4.0 7.0 0.00 0.86 0.86 59 1010.1
20240525223001 87 270 4.0 7.0 0.00 0.86 0.86 58 1010.1
20240525222846 87 197 4.0 7.0 0.00 0.86 0.86 58 1010.1
20240525222736 87 249 3.0 7.0 0.00 0.86 0.86 58 1010.1
20240525222642 87 234 3.0 7.0 0.00 0.86 0.86 58 1010.1
20240525222529 87 257 3.0 7.0 0.00 0.86 0.86 58 1010.2
20240525222437 87 278 3.0 9.0 0.00 0.86 0.86 58 1010.2
20240525222344 87 261 4.0 9.0 0.00 0.86 0.86 58 1010.2
20240525222250 87 206 3.0 9.0 0.00 0.86 0.86 58 1010.1
20240525222140 87 248 2.0 9.0 0.00 0.86 0.86 58 1010.1
20240525222046 87 279 2.0 9.0 0.00 0.86 0.86 58 1010.1
20240525221932 87 192 3.0 9.0 0.00 0.86 0.86 58 1010.2
20240525221839 87 221 3.0 9.0 0.00 0.86 0.86 56 1010.1
20240525221813 87 96 3.0 9.0 0.00 0.86 0.86 56 1010.1
20240525221545 88 187 4.0 9.0 0.00 0.86 0.86 56 1010.2
20240525221432 88 192 6.0 9.0 0.00 0.86 0.86 56 1010.3
20240525221338 88 259 6.0 9.0 0.00 0.86 0.86 55 1010.2
20240525221246 88 200 5.0 9.0 0.00 0.86 0.86 55 1010.3
20240525221132 89 247 4.0 7.0 0.00 0.86 0.86 55 1010.3
20240525221104 89 238 3.0 7.0 0.00 0.86 0.86 55 1010.2
20240525220931 89 223 4.0 10.0 0.00 0.86 0.86 55 1010.3
20240525220858 89 281 5.0 10.0 0.00 0.86 0.86 55 1010.3
20240525220744 89 277 4.0 10.0 0.00 0.86 0.86 54 1010.2
20240525220651 89 226 4.0 10.0 0.00 0.86 0.86 54 1010.3
20240525220537 90 31 4.0 10.0 0.00 0.86 0.86 55 1010.3
20240525220428 90 280 4.0 10.0 0.00 0.86 0.86 55 1010.3
20240525220356 90 255 4.0 10.0 0.00 0.86 0.86 55 1010.3
20240525220328 90 220 4.0 10.0 0.00 0.86 0.86 53 1010.2
20240525220039 90 316 4.0 10.0 0.00 0.86 0.86 54 1010.2
20240525215945 90 267 4.0 9.0 0.00 0.86 0.86 54 1010.2
20240525215836 90 277 4.0 9.0 0.00 0.86 0.86 53 1010.3
20240525215802 90 225 4.0 9.0 0.00 0.86 0.86 53 1010.2
20240525215628 90 304 6.0 9.0 0.00 0.86 0.86 54 1010.3
20240525215532 90 313 6.0 9.0 0.00 0.86 0.86 53 1010.3
20240525215438 90 302 5.0 9.0 0.00 0.86 0.86 54 1010.2
20240525215327 90 312 5.0 11.0 0.00 0.86 0.86 53 1010.2
20240525215233 90 287 5.0 11.0 0.00 0.86 0.86 54 1010.2
20240525215143 90 290 5.0 11.0 0.00 0.86 0.86 54 1010.3
20240525215031 90 331 5.0 11.0 0.00 0.86 0.86 54 1010.3
20240525214937 90 309 4.0 11.0 0.00 0.86 0.86 54 1010.3
20240525214846 90 326 4.0 11.0 0.00 0.86 0.86 53 1010.3
20240525214802 90 311 5.0 11.0 0.00 0.86 0.86 53 1010.3
20240525214535 90 331 7.0 11.0 0.00 0.86 0.86 52 1010.3
20240525214442 90 306 6.0 11.0 0.00 0.86 0.86 52 1010.3
20240525214329 90 258 5.0 9.0 0.00 0.86 0.86 52 1010.3
20240525214235 90 286 5.0 9.0 0.00 0.86 0.86 53 1010.3
20240525214142 90 335 5.0 9.0 0.00 0.86 0.86 53 1010.4
20240525214033 90 309 3.0 9.0 0.00 0.86 0.86 53 1010.3
20240525213940 90 300 2.0 8.0 0.00 0.86 0.86 53 1010.4
20240525213826 90 327 2.0 8.0 0.00 0.86 0.86 52 1010.4
20240525213734 90 307 2.0 8.0 0.00 0.86 0.86 52 1010.4
20240525213641 90 244 4.0 8.0 0.00 0.86 0.86 53 1010.3
20240525213532 90 328 5.0 8.0 0.00 0.86 0.86 54 1010.4